Time,TemperatureF,DewpointF,PressureIn,WindDirection,WindDirectionDegrees,WindSpeedMPH,WindSpeedGustMPH,Humidity,HourlyPrecipIn,Conditions,Clouds,dailyrainin,SoftwareType,DateUTC
2013-08-07 00:00:00,72.2,68.8,29.82,South,183,0.0,1.0,89,0.00,,,0.00,VWS V14.01,2013-08-07 05:00:00,
2013-08-07 00:02:00,72.2,68.8,29.82,South,183,0.0,0.0,89,0.00,,CLR,0.00,VWS V14.01,2013-08-07 05:02:00,
2013-08-07 00:03:00,72.2,68.8,29.82,South,183,0.0,0.0,89,0.00,,CLR,0.00,VWS V14.01,2013-08-07 05:03:00,
2013-08-07 00:04:00,72.2,68.8,29.82,South,184,0.0,1.0,89,0.00,,CLR,0.00,VWS V14.01,2013-08-07 05:04:00,
2013-08-07 00:07:00,72.2,68.8,29.82,South,184,0.0,1.0,89,0.00,,CLR,0.00,VWS V14.01,2013-08-07 05:07:00,
2013-08-07 00:08:00,72.2,68.8,29.82,South,184,0.0,1.0,89,0.00,,CLR,0.00,VWS V14.01,2013-08-07 05:08:00,
2013-08-07 00:09:00,72.2,68.8,29.82,South,184,0.0,1.0,89,0.00,,CLR,0.00,VWS V14.01,2013-08-07 05:09:00,
2013-08-07 00:12:00,72.2,68.8,29.82,South,184,0.0,1.0,89,0.00,,CLR,0.00,VWS V14.01,2013-08-07 05:12:00,
2013-08-07 00:13:00,72.2,68.8,29.82,South,184,0.0,1.0,89,0.00,,CLR,0.00,VWS V14.01,2013-08-07 05:13:00,
2013-08-07 00:14:00,72.2,68.8,29.82,South,184,0.0,1.0,89,0.00,,CLR,0.00,VWS V14.01,2013-08-07 05:14:00,
2013-08-07 00:17:00,72.2,68.8,29.83,South,184,0.0,1.0,89,0.00,,CLR,0.00,VWS V14.01,2013-08-07 05:17:00,
2013-08-07 00:18:00,72.2,68.8,29.83,South,184,0.0,1.0,89,0.00,,CLR,0.00,VWS V14.01,2013-08-07 05:18:00,
2013-08-07 00:19:00,72.2,68.8,29.83,South,184,0.0,1.0,89,0.00,,CLR,0.00,VWS V14.01,2013-08-07 05:19:00,
2013-08-07 00:22:00,72.2,68.8,29.83,South,184,0.0,1.0,89,0.00,,CLR,0.00,VWS V14.01,2013-08-07 05:22:00,
2013-08-07 00:24:00,72.4,69.0,29.83,South,184,0.0,1.0,89,0.00,,CLR,0.00,VWS V14.01,2013-08-07 05:24:00,
2013-08-07 00:27:00,72.2,68.8,29.83,South,184,0.0,1.0,89,0.00,,CLR,0.00,VWS V14.01,2013-08-07 05:27:00,
2013-08-07 00:29:00,72.2,68.8,29.83,South,184,0.0,1.0,89,0.00,,CLR,0.00,VWS V14.01,2013-08-07 05:29:00,
2013-08-07 00:30:00,72.2,68.8,29.83,South,184,0.0,1.0,89,0.00,,,0.00,VWS V14.01,2013-08-07 05:30:00,
2013-08-07 00:33:00,72.2,68.8,29.83,South,184,0.0,0.0,89,0.00,,CLR,0.00,VWS V14.01,2013-08-07 05:33:00,
2013-08-07 00:34:00,72.2,68.8,29.83,South,184,0.0,0.0,89,0.00,,CLR,0.00,VWS V14.01,2013-08-07 05:34:00,
2013-08-07 00:35:00,72.2,68.8,29.83,South,184,0.0,0.0,89,0.00,,CLR,0.00,VWS V14.01,2013-08-07 05:35:00,
2013-08-07 00:38:00,72.2,68.8,29.83,South,184,0.0,0.0,89,0.00,,CLR,0.00,VWS V14.01,2013-08-07 05:38:00,
2013-08-07 00:39:00,72.0,68.6,29.83,South,184,0.0,0.0,89,0.00,,CLR,0.00,VWS V14.01,2013-08-07 05:39:00,
2013-08-07 00:40:00,72.0,68.6,29.83,South,184,0.0,0.0,89,0.00,,CLR,0.00,VWS V14.01,2013-08-07 05:40:00,
2013-08-07 00:43:00,72.0,68.6,29.83,South,184,0.0,0.0,89,0.00,,CLR,0.00,VWS V14.01,2013-08-07 05:43:00,
2013-08-07 00:44:00,72.0,68.6,29.83,South,184,0.0,0.0,89,0.00,,CLR,0.00,VWS V14.01,2013-08-07 05:44:00,
2013-08-07 00:45:00,71.9,68.5,29.82,South,184,0.0,0.0,89,0.00,,CLR,0.00,VWS V14.01,2013-08-07 05:45:00,
2013-08-07 00:48:00,71.9,68.5,29.82,South,184,0.0,0.0,89,0.00,,CLR,0.00,VWS V14.01,2013-08-07 05:48:00,
2013-08-07 00:49:00,71.9,68.8,29.82,South,184,0.0,0.0,90,0.00,,CLR,0.00,VWS V14.01,2013-08-07 05:49:00,
2013-08-07 00:50:00,71.9,68.8,29.82,South,184,0.0,0.0,90,0.00,,CLR,0.00,VWS V14.01,2013-08-07 05:50:00,
2013-08-07 00:53:00,71.9,68.8,29.82,South,182,0.0,2.0,90,0.00,,CLR,0.00,VWS V14.01,2013-08-07 05:53:00,
2013-08-07 00:54:00,71.9,68.8,29.82,South,182,0.0,2.0,90,0.00,,CLR,0.00,VWS V14.01,2013-08-07 05:54:00,
2013-08-07 00:55:00,71.9,68.8,29.82,South,182,0.0,2.0,90,0.00,,CLR,0.00,VWS V14.01,2013-08-07 05:55:00,
2013-08-07 00:58:00,71.9,68.8,29.82,South,181,0.0,2.0,90,0.00,,CLR,0.00,VWS V14.01,2013-08-07 05:58:00,
2013-08-07 01:00:00,71.9,68.8,29.81,South,181,0.0,2.0,90,0.00,,CLR,0.00,VWS V14.01,2013-08-07 06:00:00,
2013-08-07 01:01:00,71.9,68.8,29.81,South,181,0.0,0.0,90,0.00,,CLR,0.00,VWS V14.01,2013-08-07 06:01:00,
2013-08-07 01:03:00,71.9,68.8,29.81,South,180,0.0,0.0,90,0.00,,CLR,0.00,VWS V14.01,2013-08-07 06:03:00,
2013-08-07 01:05:00,71.9,68.8,29.81,South,180,0.0,0.0,90,0.00,,CLR,0.00,VWS V14.01,2013-08-07 06:05:00,
2013-08-07 01:06:00,71.9,68.8,29.81,South,180,0.0,0.0,90,0.00,,CLR,0.00,VWS V14.01,2013-08-07 06:06:00,
2013-08-07 01:08:00,71.9,68.8,29.81,South,181,0.0,0.0,90,0.00,,CLR,0.00,VWS V14.01,2013-08-07 06:08:00,
2013-08-07 01:10:00,71.9,68.8,29.81,South,181,0.0,0.0,90,0.00,,CLR,0.00,VWS V14.01,2013-08-07 06:10:00,
2013-08-07 01:11:00,71.9,68.8,29.81,South,181,0.0,0.0,90,0.00,,CLR,0.00,VWS V14.01,2013-08-07 06:11:00,
2013-08-07 01:13:00,71.7,68.6,29.81,South,180,0.0,0.0,90,0.00,,CLR,0.00,VWS V14.01,2013-08-07 06:13:00,
2013-08-07 01:15:00,71.7,68.9,29.80,South,176,0.0,0.0,91,0.00,,CLR,0.00,VWS V14.01,2013-08-07 06:15:00,
2013-08-07 01:16:00,71.7,68.9,29.80,South,178,0.0,0.0,91,0.00,,CLR,0.00,VWS V14.01,2013-08-07 06:16:00,
2013-08-07 01:19:00,71.7,68.9,29.80,South,178,0.0,0.0,91,0.00,,CLR,0.00,VWS V14.01,2013-08-07 06:19:00,
2013-08-07 01:20:00,71.7,68.9,29.80,South,178,0.0,0.0,91,0.00,,CLR,0.00,VWS V14.01,2013-08-07 06:20:00,
2013-08-07 01:21:00,71.7,68.9,29.80,South,178,0.0,0.0,91,0.00,,CLR,0.00,VWS V14.01,2013-08-07 06:21:00,
2013-08-07 01:22:00,71.7,68.9,29.80,South,178,0.0,0.0,91,0.00,,CLR,0.00,VWS V14.01,2013-08-07 06:22:00,
2013-08-07 01:24:00,71.5,68.7,29.80,South,178,0.0,0.0,91,0.00,,CLR,0.00,VWS V14.01,2013-08-07 06:24:00,
2013-08-07 01:25:00,71.5,68.7,29.80,South,178,0.0,0.0,91,0.00,,CLR,0.00,VWS V14.01,2013-08-07 06:25:00,
2013-08-07 01:26:00,71.5,68.7,29.80,South,178,0.0,0.0,91,0.00,,CLR,0.00,VWS V14.01,2013-08-07 06:26:00,
2013-08-07 01:27:00,71.5,68.7,29.80,South,178,0.0,0.0,91,0.00,,CLR,0.00,VWS V14.01,2013-08-07 06:27:00,
2013-08-07 01:29:00,71.5,68.7,29.80,South,173,0.0,0.0,91,0.00,,CLR,0.00,VWS V14.01,2013-08-07 06:29:00,
2013-08-07 01:30:00,71.5,68.7,29.78,South,173,0.0,0.0,91,0.00,,CLR,0.00,VWS V14.01,2013-08-07 06:30:00,
2013-08-07 01:31:00,71.5,68.7,29.78,South,173,0.0,0.0,91,0.00,,CLR,0.00,VWS V14.01,2013-08-07 06:31:00,
2013-08-07 01:32:00,71.5,68.7,29.78,South,173,0.0,0.0,91,0.00,,CLR,0.00,VWS V14.01,2013-08-07 06:32:00,
2013-08-07 01:34:00,71.5,68.7,29.78,South,182,0.0,1.0,91,0.00,,CLR,0.00,VWS V14.01,2013-08-07 06:34:00,
2013-08-07 01:35:00,71.5,69.1,29.78,South,185,0.0,1.0,92,0.00,,CLR,0.00,VWS V14.01,2013-08-07 06:35:00,
2013-08-07 01:37:00,71.5,69.1,29.78,SW,223,0.0,2.0,92,0.00,,CLR,0.00,VWS V14.01,2013-08-07 06:37:00,
2013-08-07 01:39:00,71.5,69.1,29.78,SW,223,0.0,2.0,92,0.00,,CLR,0.00,VWS V14.01,2013-08-07 06:39:00,
2013-08-07 01:41:00,71.5,69.1,29.78,ESE,111,0.0,2.0,92,0.00,,CLR,0.00,VWS V14.01,2013-08-07 06:41:00,
2013-08-07 01:42:00,71.5,69.1,29.78,ESE,111,0.0,2.0,92,0.00,,CLR,0.00,VWS V14.01,2013-08-07 06:42:00,
2013-08-07 01:44:00,71.5,69.1,29.78,SE,127,0.0,2.0,92,0.00,,CLR,0.00,VWS V14.01,2013-08-07 06:44:00,
2013-08-07 01:47:00,71.5,69.1,29.79,South,190,0.0,2.0,92,0.00,,CLR,0.00,VWS V14.01,2013-08-07 06:47:00,
2013-08-07 01:49:00,71.4,69.0,29.79,South,191,0.0,2.0,92,0.00,,CLR,0.00,VWS V14.01,2013-08-07 06:49:00,
2013-08-07 01:52:00,71.4,69.0,29.79,South,191,0.0,2.0,92,0.00,,CLR,0.00,VWS V14.01,2013-08-07 06:52:00,
2013-08-07 01:53:00,71.4,69.0,29.79,South,174,0.0,2.0,92,0.00,,CLR,0.00,VWS V14.01,2013-08-07 06:53:00,
2013-08-07 01:55:00,71.4,69.0,29.79,South,174,0.0,2.0,92,0.00,,CLR,0.00,VWS V14.01,2013-08-07 06:55:00,
2013-08-07 01:57:00,71.4,69.0,29.79,South,174,0.0,2.0,92,0.00,,CLR,0.00,VWS V14.01,2013-08-07 06:57:00,
2013-08-07 01:58:00,71.4,69.0,29.79,South,174,0.0,2.0,92,0.00,,CLR,0.00,VWS V14.01,2013-08-07 06:58:00,
2013-08-07 02:00:00,71.2,68.8,29.78,South,175,0.0,2.0,92,0.00,,CLR,0.00,VWS V14.01,2013-08-07 07:00:00,
2013-08-07 02:02:00,71.2,68.8,29.78,SSW,200,0.0,0.0,92,0.00,,CLR,0.00,VWS V14.01,2013-08-07 07:02:00,
2013-08-07 02:03:00,71.2,68.8,29.78,SSW,199,0.0,0.0,92,0.00,,CLR,0.00,VWS V14.01,2013-08-07 07:03:00,
2013-08-07 02:05:00,71.2,68.8,29.78,SSE,167,0.0,4.0,92,0.00,,CLR,0.00,VWS V14.01,2013-08-07 07:05:00,
2013-08-07 02:07:00,71.0,68.6,29.78,South,170,0.0,4.0,92,0.00,,CLR,0.00,VWS V14.01,2013-08-07 07:07:00,
2013-08-07 02:08:00,71.0,68.6,29.78,South,170,0.0,4.0,92,0.00,,CLR,0.00,VWS V14.01,2013-08-07 07:08:00,
2013-08-07 02:09:00,71.0,68.6,29.78,South,174,0.0,4.0,92,0.00,,CLR,0.00,VWS V14.01,2013-08-07 07:09:00,
2013-08-07 02:10:00,71.0,68.6,29.78,SSW,204,0.0,4.0,92,0.00,,CLR,0.00,VWS V14.01,2013-08-07 07:10:00,
2013-08-07 02:13:00,71.0,68.6,29.78,SSW,199,0.0,4.0,92,0.00,,CLR,0.00,VWS V14.01,2013-08-07 07:13:00,
2013-08-07 02:14:00,71.0,68.6,29.78,SSW,198,0.0,4.0,92,0.00,,CLR,0.00,VWS V14.01,2013-08-07 07:14:00,
2013-08-07 02:15:00,70.8,68.4,29.78,SSW,199,0.0,4.0,92,0.00,,CLR,0.00,VWS V14.01,2013-08-07 07:15:00,
2013-08-07 02:18:00,70.8,68.7,29.78,SSW,199,0.0,4.0,93,0.00,,CLR,0.00,VWS V14.01,2013-08-07 07:18:00,
2013-08-07 02:19:00,70.8,68.7,29.78,SSW,199,0.0,4.0,93,0.00,,CLR,0.00,VWS V14.01,2013-08-07 07:19:00,
2013-08-07 02:20:00,70.8,68.7,29.78,SSW,194,4.0,4.0,93,0.00,,CLR,0.00,VWS V14.01,2013-08-07 07:20:00,
2013-08-07 02:23:00,70.8,68.7,29.78,SSW,194,0.0,4.0,93,0.00,,CLR,0.00,VWS V14.01,2013-08-07 07:23:00,
2013-08-07 02:24:00,70.8,68.7,29.78,SSW,194,0.0,4.0,93,0.00,,CLR,0.00,VWS V14.01,2013-08-07 07:24:00,
2013-08-07 02:26:00,70.8,68.7,29.78,SSW,200,0.0,4.0,93,0.00,,CLR,0.00,VWS V14.01,2013-08-07 07:26:00,
2013-08-07 02:28:00,70.8,68.7,29.78,SSW,209,0.0,4.0,93,0.00,,CLR,0.00,VWS V14.01,2013-08-07 07:28:00,
2013-08-07 02:29:00,70.8,68.7,29.78,SSW,210,0.0,4.0,93,0.00,,CLR,0.00,VWS V14.01,2013-08-07 07:29:00,
2013-08-07 02:30:00,70.8,68.7,29.78,SSW,198,0.0,4.0,93,0.00,,,0.00,VWS V14.01,2013-08-07 07:30:00,
2013-08-07 02:32:00,70.8,68.7,29.78,SSW,196,0.0,1.0,93,0.00,,CLR,0.00,VWS V14.01,2013-08-07 07:32:00,
2013-08-07 02:33:00,70.8,68.7,29.78,SSW,196,0.0,1.0,93,0.00,,CLR,0.00,VWS V14.01,2013-08-07 07:33:00,
2013-08-07 02:34:00,70.8,68.7,29.78,SSW,196,0.0,1.0,93,0.00,,CLR,0.00,VWS V14.01,2013-08-07 07:34:00,
2013-08-07 02:37:00,70.8,68.7,29.78,SSW,198,0.0,1.0,93,0.00,,CLR,0.00,VWS V14.01,2013-08-07 07:37:00,
2013-08-07 02:38:00,70.8,68.7,29.78,SSW,194,0.0,1.0,93,0.00,,CLR,0.00,VWS V14.01,2013-08-07 07:38:00,
2013-08-07 02:39:00,70.8,69.0,29.78,South,190,0.0,1.0,94,0.00,,CLR,0.00,VWS V14.01,2013-08-07 07:39:00,
2013-08-07 02:42:00,70.8,69.0,29.78,South,188,0.0,1.0,94,0.00,,CLR,0.00,VWS V14.01,2013-08-07 07:42:00,
2013-08-07 02:44:00,70.8,69.0,29.78,South,189,0.0,1.0,94,0.00,,CLR,0.00,VWS V14.01,2013-08-07 07:44:00,
2013-08-07 02:45:00,70.8,69.0,29.77,South,181,0.0,1.0,94,0.00,,CLR,0.00,VWS V14.01,2013-08-07 07:45:00,
2013-08-07 02:47:00,70.8,69.0,29.77,South,181,0.0,1.0,94,0.00,,CLR,0.00,VWS V14.01,2013-08-07 07:47:00,
2013-08-07 02:49:00,70.7,68.9,29.77,South,180,0.0,1.0,94,0.00,,CLR,0.00,VWS V14.01,2013-08-07 07:49:00,
2013-08-07 02:50:00,70.7,68.9,29.77,South,182,0.0,1.0,94,0.00,,CLR,0.00,VWS V14.01,2013-08-07 07:50:00,
2013-08-07 02:52:00,70.8,69.0,29.77,South,184,0.0,1.0,94,0.00,,CLR,0.00,VWS V14.01,2013-08-07 07:52:00,
2013-08-07 02:54:00,70.7,68.9,29.77,South,184,0.0,1.0,94,0.00,,CLR,0.00,VWS V14.01,2013-08-07 07:54:00,
2013-08-07 02:55:00,70.8,69.0,29.77,South,184,0.0,1.0,94,0.00,,CLR,0.00,VWS V14.01,2013-08-07 07:55:00,
2013-08-07 02:58:00,70.8,69.0,29.77,SSW,195,0.0,3.0,94,0.00,,CLR,0.00,VWS V14.01,2013-08-07 07:58:00,
2013-08-07 02:59:00,70.8,69.0,29.77,SSW,194,0.0,3.0,94,0.00,,CLR,0.00,VWS V14.01,2013-08-07 07:59:00,
2013-08-07 03:00:00,70.8,69.0,29.75,SSW,194,0.0,3.0,94,0.00,,CLR,0.00,VWS V14.01,2013-08-07 08:00:00,
2013-08-07 03:03:00,70.8,69.0,29.75,South,171,0.0,1.0,94,0.00,,,0.00,VWS V14.01,2013-08-07 08:03:00,
2013-08-07 03:04:00,70.8,69.0,29.75,South,171,0.0,1.0,94,0.00,,,0.00,VWS V14.01,2013-08-07 08:04:00,
2013-08-07 03:05:00,70.8,69.0,29.75,South,171,0.0,1.0,94,0.00,,,0.00,VWS V14.01,2013-08-07 08:05:00,
2013-08-07 03:08:00,70.8,69.0,29.75,SSE,159,1.0,1.0,94,0.00,,,0.00,VWS V14.01,2013-08-07 08:08:00,
2013-08-07 03:09:00,70.8,69.0,29.75,South,177,0.0,1.0,94,0.00,,,0.00,VWS V14.01,2013-08-07 08:09:00,
2013-08-07 03:10:00,70.8,69.0,29.75,South,178,0.0,1.0,94,0.00,,,0.00,VWS V14.01,2013-08-07 08:10:00,
2013-08-07 03:13:00,70.8,69.0,29.75,South,178,0.0,1.0,94,0.00,,,0.00,VWS V14.01,2013-08-07 08:13:00,
2013-08-07 03:14:00,70.8,69.0,29.75,South,178,0.0,1.0,94,0.00,,,0.00,VWS V14.01,2013-08-07 08:14:00,
2013-08-07 03:15:00,70.8,69.0,29.76,South,178,0.0,1.0,94,0.00,,,0.00,VWS V14.01,2013-08-07 08:15:00,
2013-08-07 03:16:00,70.8,69.0,29.76,South,178,0.0,1.0,94,0.00,,,0.00,VWS V14.01,2013-08-07 08:16:00,
2013-08-07 03:18:00,70.8,69.0,29.76,South,178,0.0,1.0,94,0.00,,,0.00,VWS V14.01,2013-08-07 08:18:00,
2013-08-07 03:19:00,70.8,69.0,29.76,South,182,0.0,1.0,94,0.00,,,0.00,VWS V14.01,2013-08-07 08:19:00,
2013-08-07 03:20:00,70.8,69.0,29.76,South,182,0.0,1.0,94,0.00,,,0.00,VWS V14.01,2013-08-07 08:20:00,
2013-08-07 03:21:00,70.8,69.0,29.76,South,182,0.0,1.0,94,0.00,,,0.00,VWS V14.01,2013-08-07 08:21:00,
2013-08-07 03:23:00,70.8,69.3,29.76,South,183,0.0,1.0,95,0.00,,,0.00,VWS V14.01,2013-08-07 08:23:00,
2013-08-07 03:25:00,70.8,69.3,29.76,South,185,0.0,1.0,95,0.00,,,0.00,VWS V14.01,2013-08-07 08:25:00,
2013-08-07 03:26:00,70.8,69.3,29.76,South,185,0.0,1.0,95,0.00,,,0.00,VWS V14.01,2013-08-07 08:26:00,
2013-08-07 03:28:00,70.8,69.3,29.76,South,185,0.0,1.0,95,0.00,,,0.00,VWS V14.01,2013-08-07 08:28:00,
2013-08-07 03:30:00,70.8,69.3,29.76,South,185,0.0,1.0,95,0.00,,,0.00,VWS V14.01,2013-08-07 08:30:00,
2013-08-07 03:31:00,70.8,69.3,29.76,South,185,0.0,0.0,95,0.00,,,0.00,VWS V14.01,2013-08-07 08:31:00,
2013-08-07 03:33:00,70.8,69.3,29.76,South,182,0.0,1.0,95,0.00,,,0.00,VWS V14.01,2013-08-07 08:33:00,
2013-08-07 03:35:00,70.8,69.3,29.76,South,180,0.0,1.0,95,0.00,,,0.00,VWS V14.01,2013-08-07 08:35:00,
2013-08-07 03:36:00,70.8,69.3,29.76,South,181,0.0,1.0,95,0.00,,,0.00,VWS V14.01,2013-08-07 08:36:00,
2013-08-07 03:39:00,70.8,69.3,29.76,SSW,193,0.0,2.0,95,0.00,,,0.00,VWS V14.01,2013-08-07 08:39:00,
2013-08-07 03:40:00,70.8,69.3,29.76,South,190,0.0,2.0,95,0.00,,,0.00,VWS V14.01,2013-08-07 08:40:00,
2013-08-07 03:41:00,70.8,69.3,29.76,South,190,0.0,2.0,95,0.00,,,0.00,VWS V14.01,2013-08-07 08:41:00,
2013-08-07 03:44:00,70.8,69.3,29.76,South,190,0.0,2.0,95,0.00,,,0.00,VWS V14.01,2013-08-07 08:44:00,
2013-08-07 03:45:00,70.8,69.3,29.76,South,188,0.0,2.0,95,0.00,,,0.00,VWS V14.01,2013-08-07 08:45:00,
2013-08-07 03:46:00,70.8,69.3,29.76,South,188,0.0,2.0,95,0.00,,,0.00,VWS V14.01,2013-08-07 08:46:00,
2013-08-07 03:47:00,70.8,69.3,29.76,South,188,0.0,2.0,95,0.00,,,0.00,VWS V14.01,2013-08-07 08:47:00,
2013-08-07 03:49:00,70.8,69.3,29.76,South,189,0.0,2.0,95,0.00,,,0.00,VWS V14.01,2013-08-07 08:49:00,
2013-08-07 03:51:00,70.8,69.3,29.76,South,179,0.0,2.0,95,0.00,,,0.00,VWS V14.01,2013-08-07 08:51:00,
2013-08-07 03:52:00,71.0,69.5,29.76,South,179,0.0,2.0,95,0.00,,,0.00,VWS V14.01,2013-08-07 08:52:00,
2013-08-07 03:54:00,70.8,69.3,29.76,South,182,0.0,2.0,95,0.00,,,0.00,VWS V14.01,2013-08-07 08:54:00,
2013-08-07 03:56:00,70.8,69.3,29.76,SSW,208,0.0,2.0,95,0.00,,,0.00,VWS V14.01,2013-08-07 08:56:00,
2013-08-07 03:57:00,70.8,69.3,29.76,SSW,208,0.0,2.0,95,0.00,,,0.00,VWS V14.01,2013-08-07 08:57:00,
2013-08-07 03:59:00,71.0,69.5,29.76,SSW,195,0.0,2.0,95,0.00,,,0.00,VWS V14.01,2013-08-07 08:59:00,
2013-08-07 04:00:00,71.0,69.5,29.75,South,169,0.0,2.0,95,0.00,,,0.00,VWS V14.01,2013-08-07 09:00:00,
2013-08-07 04:01:00,71.0,69.5,29.75,South,170,0.0,0.0,95,0.00,,,0.00,VWS V14.01,2013-08-07 09:01:00,
2013-08-07 04:02:00,71.0,69.5,29.75,South,170,0.0,0.0,95,0.00,,,0.00,VWS V14.01,2013-08-07 09:02:00,
2013-08-07 04:04:00,71.0,69.5,29.75,South,185,0.0,0.0,95,0.00,,,0.00,VWS V14.01,2013-08-07 09:04:00,
2013-08-07 04:06:00,71.0,69.5,29.75,South,188,0.0,1.0,95,0.00,,,0.00,VWS V14.01,2013-08-07 09:06:00,
2013-08-07 04:07:00,71.0,69.5,29.75,South,188,0.0,1.0,95,0.00,,,0.00,VWS V14.01,2013-08-07 09:07:00,
2013-08-07 04:09:00,71.0,69.5,29.75,SSW,192,0.0,1.0,95,0.00,,,0.00,VWS V14.01,2013-08-07 09:09:00,
2013-08-07 04:11:00,71.0,69.5,29.75,SSW,192,0.0,1.0,95,0.00,,,0.00,VWS V14.01,2013-08-07 09:11:00,
2013-08-07 04:12:00,71.0,69.5,29.75,SSW,192,0.0,1.0,95,0.00,,,0.00,VWS V14.01,2013-08-07 09:12:00,
2013-08-07 04:15:00,70.8,69.3,29.75,SSW,192,0.0,1.0,95,0.00,,,0.00,VWS V14.01,2013-08-07 09:15:00,
2013-08-07 04:16:00,70.8,69.3,29.75,SSW,192,0.0,1.0,95,0.00,,,0.00,VWS V14.01,2013-08-07 09:16:00,
2013-08-07 04:17:00,70.8,69.3,29.75,SSW,192,0.0,1.0,95,0.00,,,0.00,VWS V14.01,2013-08-07 09:17:00,
2013-08-07 04:20:00,70.8,69.3,29.75,SSW,192,0.0,1.0,95,0.00,,,0.00,VWS V14.01,2013-08-07 09:20:00,
2013-08-07 04:22:00,70.8,69.3,29.75,SSW,192,0.0,1.0,95,0.00,,,0.00,VWS V14.01,2013-08-07 09:22:00,
2013-08-07 04:25:00,70.8,69.3,29.75,SSW,192,0.0,1.0,95,0.00,,,0.00,VWS V14.01,2013-08-07 09:25:00,
2013-08-07 04:27:00,71.0,69.5,29.75,SSW,192,0.0,1.0,95,0.00,,,0.00,VWS V14.01,2013-08-07 09:27:00,
2013-08-07 04:28:00,71.0,69.5,29.75,SSW,192,0.0,1.0,95,0.00,,,0.00,VWS V14.01,2013-08-07 09:28:00,
2013-08-07 04:30:00,71.0,69.5,29.75,SSW,192,0.0,1.0,95,0.00,,,0.00,VWS V14.01,2013-08-07 09:30:00,
2013-08-07 04:32:00,71.0,69.5,29.75,SSW,192,0.0,0.0,95,0.00,,,0.00,VWS V14.01,2013-08-07 09:32:00,
2013-08-07 04:33:00,71.0,69.5,29.75,SSW,192,0.0,0.0,95,0.00,,,0.00,VWS V14.01,2013-08-07 09:33:00,
2013-08-07 04:35:00,71.0,69.5,29.75,SSW,192,0.0,1.0,95,0.00,,,0.00,VWS V14.01,2013-08-07 09:35:00,
2013-08-07 04:37:00,71.0,69.5,29.75,SSW,192,0.0,1.0,95,0.00,,,0.00,VWS V14.01,2013-08-07 09:37:00,
2013-08-07 04:38:00,71.0,69.5,29.75,South,190,0.0,1.0,95,0.00,,,0.00,VWS V14.01,2013-08-07 09:38:00,
2013-08-07 04:39:00,71.0,69.5,29.75,South,190,0.0,1.0,95,0.00,,,0.00,VWS V14.01,2013-08-07 09:39:00,
2013-08-07 04:40:00,71.0,69.5,29.75,South,189,0.0,1.0,95,0.00,,,0.00,VWS V14.01,2013-08-07 09:40:00,
2013-08-07 04:43:00,70.8,69.3,29.75,South,188,0.0,1.0,95,0.00,,,0.00,VWS V14.01,2013-08-07 09:43:00,
2013-08-07 04:44:00,70.8,69.3,29.75,South,188,0.0,1.0,95,0.00,,,0.00,VWS V14.01,2013-08-07 09:44:00,
2013-08-07 04:45:00,70.8,69.3,29.77,South,189,0.0,1.0,95,0.00,,,0.00,VWS V14.01,2013-08-07 09:45:00,
2013-08-07 04:48:00,70.8,69.3,29.77,South,183,0.0,1.0,95,0.00,,,0.00,VWS V14.01,2013-08-07 09:48:00,
2013-08-07 04:49:00,70.8,69.3,29.77,South,183,0.0,1.0,95,0.00,,,0.00,VWS V14.01,2013-08-07 09:49:00,
2013-08-07 04:51:00,70.8,69.3,29.77,South,183,0.0,1.0,95,0.00,,,0.00,VWS V14.01,2013-08-07 09:51:00,
2013-08-07 04:53:00,70.8,69.6,29.77,South,183,0.0,1.0,96,0.00,,,0.00,VWS V14.01,2013-08-07 09:53:00,
2013-08-07 04:54:00,70.8,69.6,29.77,South,184,0.0,1.0,96,0.00,,,0.00,VWS V14.01,2013-08-07 09:54:00,
2013-08-07 04:56:00,70.8,69.6,29.77,South,185,0.0,1.0,96,0.00,,,0.00,VWS V14.01,2013-08-07 09:56:00,
2013-08-07 04:58:00,70.8,69.6,29.77,South,171,0.0,1.0,96,0.00,,,0.00,VWS V14.01,2013-08-07 09:58:00,
2013-08-07 04:59:00,70.8,69.6,29.77,South,171,0.0,1.0,96,0.00,,,0.00,VWS V14.01,2013-08-07 09:59:00,
2013-08-07 05:00:00,70.8,69.6,29.77,South,175,0.0,1.0,96,0.00,,,0.00,VWS V14.01,2013-08-07 10:00:00,
2013-08-07 05:01:00,70.8,69.6,29.77,South,175,0.0,0.0,96,0.00,,,0.00,VWS V14.01,2013-08-07 10:01:00,
2013-08-07 05:03:00,70.8,69.6,29.77,South,175,0.0,0.0,96,0.00,,,0.00,VWS V14.01,2013-08-07 10:03:00,
2013-08-07 05:04:00,70.8,69.6,29.77,South,175,0.0,0.0,96,0.00,,,0.00,VWS V14.01,2013-08-07 10:04:00,
2013-08-07 05:05:00,70.8,69.6,29.77,South,175,0.0,0.0,96,0.00,,,0.00,VWS V14.01,2013-08-07 10:05:00,
2013-08-07 05:07:00,70.8,69.6,29.77,SSW,192,0.0,4.0,96,0.00,,,0.00,VWS V14.01,2013-08-07 10:07:00,
2013-08-07 05:08:00,70.8,69.6,29.77,SSW,192,0.0,4.0,96,0.00,,,0.00,VWS V14.01,2013-08-07 10:08:00,
2013-08-07 05:09:00,70.8,69.6,29.77,SSW,192,0.0,4.0,96,0.00,,,0.00,VWS V14.01,2013-08-07 10:09:00,
2013-08-07 05:10:00,71.0,69.8,29.77,South,185,0.0,4.0,96,0.00,,,0.00,VWS V14.01,2013-08-07 10:10:00,
2013-08-07 05:12:00,71.0,69.8,29.77,SSW,201,0.0,4.0,96,0.00,,,0.00,VWS V14.01,2013-08-07 10:12:00,
2013-08-07 05:13:00,71.0,69.8,29.77,South,186,2.0,5.0,96,0.00,,,0.00,VWS V14.01,2013-08-07 10:13:00,
2013-08-07 05:14:00,71.0,69.8,29.77,SSW,192,4.0,5.0,96,0.00,,,0.00,VWS V14.01,2013-08-07 10:14:00,
2013-08-07 05:16:00,71.0,69.8,29.76,SSW,206,0.0,5.0,96,0.00,,,0.00,VWS V14.01,2013-08-07 10:16:00,
2013-08-07 05:17:00,71.0,69.8,29.76,SSW,205,0.0,5.0,96,0.00,,,0.00,VWS V14.01,2013-08-07 10:17:00,
2013-08-07 05:18:00,71.0,69.8,29.76,SSW,203,0.0,5.0,96,0.00,,,0.00,VWS V14.01,2013-08-07 10:18:00,
2013-08-07 05:19:00,71.0,69.8,29.76,SW,216,0.0,5.0,96,0.00,,,0.00,VWS V14.01,2013-08-07 10:19:00,
2013-08-07 05:21:00,71.0,69.8,29.76,SSW,210,0.0,5.0,96,0.00,,,0.00,VWS V14.01,2013-08-07 10:21:00,
2013-08-07 05:22:00,71.0,69.8,29.76,SSW,192,0.0,5.0,96,0.00,,,0.00,VWS V14.01,2013-08-07 10:22:00,
2013-08-07 05:24:00,71.0,69.8,29.76,SSW,200,3.0,5.0,96,0.00,,,0.00,VWS V14.01,2013-08-07 10:24:00,
2013-08-07 05:26:00,71.0,69.8,29.76,SSE,156,0.0,7.0,96,0.00,,,0.00,VWS V14.01,2013-08-07 10:26:00,
2013-08-07 05:27:00,71.0,69.8,29.76,SSE,156,0.0,7.0,96,0.00,,,0.00,VWS V14.01,2013-08-07 10:27:00,
2013-08-07 05:29:00,71.0,69.8,29.76,SSE,165,1.0,7.0,96,0.00,,,0.00,VWS V14.01,2013-08-07 10:29:00,
2013-08-07 05:30:00,71.0,69.8,29.76,SSW,206,5.0,7.0,96,0.00,,,0.00,VWS V14.01,2013-08-07 10:30:00,
2013-08-07 05:31:00,71.0,69.8,29.76,SSW,195,0.0,5.0,96,0.00,,,0.00,VWS V14.01,2013-08-07 10:31:00,
2013-08-07 05:32:00,71.0,69.8,29.76,SSW,192,4.0,5.0,96,0.00,,,0.00,VWS V14.01,2013-08-07 10:32:00,
2013-08-07 05:34:00,71.0,69.8,29.76,South,190,0.0,5.0,96,0.00,,,0.00,VWS V14.01,2013-08-07 10:34:00,
2013-08-07 05:37:00,71.0,69.8,29.76,South,189,0.0,6.0,96,0.00,,,0.00,VWS V14.01,2013-08-07 10:37:00,
2013-08-07 05:39:00,71.0,69.8,29.76,SSW,200,3.0,6.0,96,0.00,,,0.00,VWS V14.01,2013-08-07 10:39:00,
2013-08-07 05:40:00,71.0,69.8,29.76,SSW,192,0.0,6.0,96,0.00,,,0.00,VWS V14.01,2013-08-07 10:40:00,
2013-08-07 05:42:00,71.2,70.0,29.76,South,187,0.0,6.0,96,0.00,,,0.00,VWS V14.01,2013-08-07 10:42:00,
2013-08-07 05:44:00,71.2,70.0,29.76,South,188,0.0,7.0,96,0.00,,,0.00,VWS V14.01,2013-08-07 10:44:00,
2013-08-07 05:45:00,71.2,70.0,29.76,South,187,0.0,7.0,96,0.00,,,0.00,VWS V14.01,2013-08-07 10:45:00,
2013-08-07 05:47:00,71.2,70.0,29.76,SSW,196,0.0,7.0,96,0.00,,,0.00,VWS V14.01,2013-08-07 10:47:00,
2013-08-07 05:49:00,71.2,70.0,29.76,South,183,0.0,7.0,96,0.00,,,0.00,VWS V14.01,2013-08-07 10:49:00,
2013-08-07 05:50:00,71.2,70.0,29.76,South,183,0.0,7.0,96,0.00,,,0.00,VWS V14.01,2013-08-07 10:50:00,
2013-08-07 05:52:00,71.2,70.0,29.76,South,188,4.0,7.0,96,0.00,,,0.00,VWS V14.01,2013-08-07 10:52:00,
2013-08-07 05:55:00,71.2,70.0,29.76,South,188,0.0,7.0,96,0.00,,,0.00,VWS V14.01,2013-08-07 10:55:00,
2013-08-07 05:57:00,71.2,70.0,29.76,SSE,157,0.0,7.0,96,0.00,,,0.00,VWS V14.01,2013-08-07 10:57:00,
2013-08-07 05:58:00,71.2,70.0,29.76,SSE,157,0.0,7.0,96,0.00,,,0.00,VWS V14.01,2013-08-07 10:58:00,
2013-08-07 06:00:00,71.2,70.0,29.77,SSE,157,0.0,7.0,96,0.00,,,0.00,VWS V14.01,2013-08-07 11:00:00,
2013-08-07 06:01:00,71.2,70.0,29.77,South,187,1.0,3.0,96,0.00,,,0.00,VWS V14.01,2013-08-07 11:01:00,
2013-08-07 06:02:00,71.2,70.0,29.77,SSW,197,0.0,3.0,96,0.00,,,0.00,VWS V14.01,2013-08-07 11:02:00,
2013-08-07 06:03:00,71.2,70.0,29.77,SSW,197,0.0,3.0,96,0.00,,,0.00,VWS V14.01,2013-08-07 11:03:00,
2013-08-07 06:05:00,71.2,70.0,29.77,SSW,197,0.0,3.0,96,0.00,,,0.00,VWS V14.01,2013-08-07 11:05:00,
2013-08-07 06:06:00,71.2,70.0,29.77,SSW,197,0.0,3.0,96,0.00,,,0.00,VWS V14.01,2013-08-07 11:06:00,
2013-08-07 06:07:00,71.2,70.0,29.77,SSW,197,0.0,3.0,96,0.00,,,0.00,VWS V14.01,2013-08-07 11:07:00,
2013-08-07 06:08:00,71.2,70.0,29.77,SSW,198,0.0,3.0,96,0.00,,,0.00,VWS V14.01,2013-08-07 11:08:00,
2013-08-07 06:10:00,71.2,70.0,29.77,South,188,0.0,3.0,96,0.00,,,0.00,VWS V14.01,2013-08-07 11:10:00,
2013-08-07 06:11:00,71.2,70.0,29.77,South,188,0.0,3.0,96,0.00,,,0.00,VWS V14.01,2013-08-07 11:11:00,
2013-08-07 06:12:00,71.2,70.0,29.77,SSW,194,2.0,5.0,96,0.00,,,0.00,VWS V14.01,2013-08-07 11:12:00,
2013-08-07 06:13:00,71.2,70.0,29.77,SSE,163,2.0,5.0,96,0.00,,,0.00,VWS V14.01,2013-08-07 11:13:00,
2013-08-07 06:15:00,71.2,70.0,29.77,SSE,165,0.0,5.0,96,0.00,,,0.00,VWS V14.01,2013-08-07 11:15:00,
2013-08-07 06:17:00,71.2,70.0,29.77,SSE,165,0.0,5.0,96,0.00,,,0.00,VWS V14.01,2013-08-07 11:17:00,
2013-08-07 06:18:00,71.2,70.0,29.77,SSE,165,0.0,5.0,96,0.00,,,0.00,VWS V14.01,2013-08-07 11:18:00,
2013-08-07 06:20:00,71.2,70.0,29.77,SSE,162,0.0,5.0,96,0.00,,,0.00,VWS V14.01,2013-08-07 11:20:00,
2013-08-07 06:21:00,71.2,70.0,29.77,SSE,162,0.0,5.0,96,0.00,,,0.00,VWS V14.01,2013-08-07 11:21:00,
2013-08-07 06:22:00,71.2,70.0,29.77,SSE,163,0.0,5.0,96,0.00,,,0.00,VWS V14.01,2013-08-07 11:22:00,
2013-08-07 06:23:00,71.2,70.0,29.77,SSE,163,0.0,5.0,96,0.00,,,0.00,VWS V14.01,2013-08-07 11:23:00,
2013-08-07 06:26:00,71.2,70.0,29.77,SSE,163,0.0,5.0,96,0.00,,,0.00,VWS V14.01,2013-08-07 11:26:00,
2013-08-07 06:27:00,71.4,70.2,29.77,SSE,165,0.0,5.0,96,0.00,,,0.00,VWS V14.01,2013-08-07 11:27:00,
2013-08-07 06:28:00,71.4,70.2,29.77,SSE,165,0.0,5.0,96,0.00,,,0.00,VWS V14.01,2013-08-07 11:28:00,
2013-08-07 06:30:00,71.4,70.2,29.77,SSE,165,0.0,5.0,96,0.00,,,0.00,VWS V14.01,2013-08-07 11:30:00,
2013-08-07 06:31:00,71.4,70.2,29.77,SSE,165,0.0,0.0,96,0.00,,,0.00,VWS V14.01,2013-08-07 11:31:00,
2013-08-07 06:32:00,71.4,70.2,29.77,SSE,165,0.0,0.0,96,0.00,,,0.00,VWS V14.01,2013-08-07 11:32:00,
2013-08-07 06:33:00,71.4,70.2,29.77,SSE,165,0.0,0.0,96,0.00,,,0.00,VWS V14.01,2013-08-07 11:33:00,
2013-08-07 06:36:00,71.4,70.2,29.77,SSE,165,0.0,0.0,96,0.00,,,0.00,VWS V14.01,2013-08-07 11:36:00,
2013-08-07 06:37:00,71.4,70.2,29.77,SSE,165,0.0,0.0,96,0.00,,,0.00,VWS V14.01,2013-08-07 11:37:00,
2013-08-07 06:38:00,71.4,70.2,29.77,SSE,165,0.0,0.0,96,0.00,,,0.00,VWS V14.01,2013-08-07 11:38:00,
2013-08-07 06:41:00,71.5,70.3,29.77,SSE,165,0.0,0.0,96,0.00,,,0.00,VWS V14.01,2013-08-07 11:41:00,
2013-08-07 06:42:00,71.5,70.3,29.77,SSE,165,0.0,0.0,96,0.00,,,0.00,VWS V14.01,2013-08-07 11:42:00,
2013-08-07 06:43:00,71.5,70.3,29.77,SSE,165,0.0,0.0,96,0.00,,,0.00,VWS V14.01,2013-08-07 11:43:00,
2013-08-07 06:44:00,71.5,70.3,29.77,SSE,165,0.0,0.0,96,0.00,,,0.00,VWS V14.01,2013-08-07 11:44:00,
2013-08-07 06:46:00,71.5,70.3,29.78,SSE,165,0.0,0.0,96,0.00,,,0.00,VWS V14.01,2013-08-07 11:46:00,
2013-08-07 06:48:00,71.4,70.2,29.78,SSE,165,0.0,0.0,96,0.00,,,0.00,VWS V14.01,2013-08-07 11:48:00,
2013-08-07 06:49:00,71.4,70.2,29.78,SSE,165,0.0,0.0,96,0.00,,,0.00,VWS V14.01,2013-08-07 11:49:00,
2013-08-07 06:51:00,71.4,70.2,29.78,SSE,165,0.0,0.0,96,0.00,,,0.00,VWS V14.01,2013-08-07 11:51:00,
2013-08-07 06:52:00,71.4,70.2,29.78,SSE,165,0.0,0.0,96,0.00,,,0.00,VWS V14.01,2013-08-07 11:52:00,
2013-08-07 06:53:00,71.4,70.2,29.78,SSE,165,0.0,0.0,96,0.00,,,0.00,VWS V14.01,2013-08-07 11:53:00,
2013-08-07 06:54:00,71.4,70.2,29.78,SSE,165,0.0,0.0,96,0.00,,,0.00,VWS V14.01,2013-08-07 11:54:00,
2013-08-07 06:56:00,71.5,70.3,29.78,SSE,165,0.0,0.0,96,0.00,,,0.00,VWS V14.01,2013-08-07 11:56:00,
2013-08-07 06:57:00,71.5,70.3,29.78,SSE,165,0.0,0.0,96,0.00,,,0.00,VWS V14.01,2013-08-07 11:57:00,
2013-08-07 06:58:00,71.5,70.3,29.78,SSE,165,0.0,0.0,96,0.00,,,0.00,VWS V14.01,2013-08-07 11:58:00,
2013-08-07 06:59:00,71.5,70.3,29.78,SSE,165,0.0,0.0,96,0.00,,,0.00,VWS V14.01,2013-08-07 11:59:00,
2013-08-07 07:00:00,71.4,70.2,29.80,SSE,165,0.0,0.0,96,0.00,,,0.00,VWS V14.01,2013-08-07 12:00:00,
2013-08-07 07:01:00,71.4,70.2,29.80,SSE,165,0.0,0.0,96,0.00,,,0.00,VWS V14.01,2013-08-07 12:01:00,
2013-08-07 07:02:00,71.4,70.2,29.80,SSE,165,0.0,0.0,96,0.00,,,0.00,VWS V14.01,2013-08-07 12:02:00,
2013-08-07 07:03:00,71.4,70.2,29.80,SSE,165,0.0,0.0,96,0.00,,,0.00,VWS V14.01,2013-08-07 12:03:00,
2013-08-07 07:04:00,71.4,70.2,29.80,SSE,165,0.0,0.0,96,0.00,,,0.00,VWS V14.01,2013-08-07 12:04:00,
2013-08-07 07:06:00,71.4,70.2,29.80,SSE,165,0.0,0.0,96,0.00,,,0.00,VWS V14.01,2013-08-07 12:06:00,
2013-08-07 07:07:00,71.4,70.2,29.80,SSE,165,0.0,0.0,96,0.00,,,0.00,VWS V14.01,2013-08-07 12:07:00,
2013-08-07 07:08:00,71.4,70.2,29.80,SSE,165,0.0,0.0,96,0.00,,,0.00,VWS V14.01,2013-08-07 12:08:00,
2013-08-07 07:09:00,71.5,70.3,29.80,SSE,165,0.0,0.0,96,0.00,,,0.00,VWS V14.01,2013-08-07 12:09:00,
2013-08-07 07:11:00,71.5,70.3,29.80,SSE,165,0.0,0.0,96,0.00,,,0.00,VWS V14.01,2013-08-07 12:11:00,
2013-08-07 07:12:00,71.5,70.3,29.80,SSE,165,0.0,0.0,96,0.00,,,0.00,VWS V14.01,2013-08-07 12:12:00,
2013-08-07 07:13:00,71.5,70.3,29.80,SSE,165,0.0,0.0,96,0.00,,,0.00,VWS V14.01,2013-08-07 12:13:00,
2013-08-07 07:14:00,71.5,70.3,29.80,SSE,165,0.0,0.0,96,0.00,,,0.00,VWS V14.01,2013-08-07 12:14:00,
2013-08-07 07:15:00,71.5,70.3,29.81,SSE,165,0.0,0.0,96,0.00,,,0.00,VWS V14.01,2013-08-07 12:15:00,
2013-08-07 07:16:00,71.5,70.3,29.81,SSE,165,0.0,0.0,96,0.00,,,0.00,VWS V14.01,2013-08-07 12:16:00,
2013-08-07 07:17:00,71.5,70.3,29.81,SSE,165,0.0,0.0,96,0.00,,,0.00,VWS V14.01,2013-08-07 12:17:00,
2013-08-07 07:19:00,71.5,70.3,29.81,SSE,165,0.0,0.0,96,0.00,,,0.00,VWS V14.01,2013-08-07 12:19:00,
2013-08-07 07:20:00,71.5,70.3,29.81,SSE,165,0.0,0.0,96,0.00,,,0.00,VWS V14.01,2013-08-07 12:20:00,
2013-08-07 07:21:00,71.5,70.3,29.81,SSE,165,0.0,0.0,96,0.00,,,0.00,VWS V14.01,2013-08-07 12:21:00,
2013-08-07 07:23:00,71.5,70.3,29.81,SSE,165,0.0,0.0,96,0.00,,,0.00,VWS V14.01,2013-08-07 12:23:00,
2013-08-07 07:24:00,71.5,70.3,29.81,SSE,165,0.0,0.0,96,0.00,,,0.00,VWS V14.01,2013-08-07 12:24:00,
2013-08-07 07:25:00,71.5,70.3,29.81,SSE,165,0.0,0.0,96,0.00,,,0.00,VWS V14.01,2013-08-07 12:25:00,
2013-08-07 07:27:00,71.5,70.3,29.81,SSE,165,0.0,0.0,96,0.00,,,0.00,VWS V14.01,2013-08-07 12:27:00,
2013-08-07 07:28:00,71.5,70.3,29.81,SSE,165,0.0,0.0,96,0.00,,,0.00,VWS V14.01,2013-08-07 12:28:00,
2013-08-07 07:29:00,71.7,70.5,29.81,SSE,165,0.0,0.0,96,0.00,,,0.00,VWS V14.01,2013-08-07 12:29:00,
2013-08-07 07:30:00,71.7,70.5,29.81,SSE,165,0.0,0.0,96,0.00,,,0.00,VWS V14.01,2013-08-07 12:30:00,
2013-08-07 07:32:00,71.5,70.3,29.82,SSE,165,0.0,0.0,96,0.00,,,0.00,VWS V14.01,2013-08-07 12:32:00,
2013-08-07 07:33:00,71.5,70.3,29.82,SSE,165,0.0,0.0,96,0.00,,,0.00,VWS V14.01,2013-08-07 12:33:00,
2013-08-07 07:34:00,71.5,70.3,29.82,SSE,165,0.0,0.0,96,0.00,,,0.00,VWS V14.01,2013-08-07 12:34:00,
2013-08-07 07:35:00,71.5,70.3,29.82,SSE,165,0.0,0.0,96,0.00,,,0.00,VWS V14.01,2013-08-07 12:35:00,
2013-08-07 07:37:00,71.7,70.5,29.82,SSE,165,0.0,0.0,96,0.00,,,0.00,VWS V14.01,2013-08-07 12:37:00,
2013-08-07 07:38:00,71.5,70.3,29.82,SSE,165,0.0,0.0,96,0.00,,,0.00,VWS V14.01,2013-08-07 12:38:00,
2013-08-07 07:39:00,71.5,70.3,29.82,SSE,165,0.0,0.0,96,0.00,,,0.00,VWS V14.01,2013-08-07 12:39:00,
2013-08-07 07:40:00,71.5,70.3,29.82,SSE,165,0.0,0.0,96,0.00,,,0.00,VWS V14.01,2013-08-07 12:40:00,
2013-08-07 07:41:00,71.5,70.3,29.82,SSE,165,0.0,0.0,96,0.00,,,0.00,VWS V14.01,2013-08-07 12:41:00,
2013-08-07 07:42:00,71.7,70.5,29.82,SSE,165,0.0,0.0,96,0.00,,,0.00,VWS V14.01,2013-08-07 12:42:00,
2013-08-07 07:43:00,71.7,70.5,29.82,SSE,165,0.0,0.0,96,0.00,,,0.00,VWS V14.01,2013-08-07 12:43:00,
2013-08-07 07:44:00,71.7,70.5,29.82,SSE,165,0.0,0.0,96,0.00,,,0.00,VWS V14.01,2013-08-07 12:44:00,
2013-08-07 07:45:00,71.7,70.5,29.82,SSE,165,0.0,0.0,96,0.00,,,0.00,VWS V14.01,2013-08-07 12:45:00,
2013-08-07 07:46:00,71.7,70.5,29.82,SSE,165,0.0,0.0,96,0.00,,,0.00,VWS V14.01,2013-08-07 12:46:00,
2013-08-07 07:47:00,71.7,70.5,29.82,SSE,165,0.0,0.0,96,0.00,,,0.00,VWS V14.01,2013-08-07 12:47:00,
2013-08-07 07:48:00,71.7,70.5,29.82,SSE,165,0.0,0.0,96,0.00,,,0.00,VWS V14.01,2013-08-07 12:48:00,
2013-08-07 07:50:00,71.7,70.5,29.82,SSE,165,0.0,0.0,96,0.00,,,0.00,VWS V14.01,2013-08-07 12:50:00,
2013-08-07 07:51:00,71.7,70.5,29.82,SSE,165,0.0,0.0,96,0.00,,,0.00,VWS V14.01,2013-08-07 12:51:00,
2013-08-07 07:52:00,71.7,70.5,29.82,SSE,165,0.0,0.0,96,0.00,,,0.00,VWS V14.01,2013-08-07 12:52:00,
2013-08-07 07:53:00,71.7,70.5,29.82,SSE,165,0.0,0.0,96,0.00,,,0.00,VWS V14.01,2013-08-07 12:53:00,
2013-08-07 07:55:00,71.7,70.5,29.82,SSE,165,0.0,0.0,96,0.00,,,0.00,VWS V14.01,2013-08-07 12:55:00,
2013-08-07 07:56:00,71.7,70.5,29.82,South,173,0.0,0.0,96,0.00,,,0.00,VWS V14.01,2013-08-07 12:56:00,
2013-08-07 07:57:00,71.5,70.3,29.82,South,176,0.0,0.0,96,0.00,,,0.00,VWS V14.01,2013-08-07 12:57:00,
2013-08-07 07:58:00,71.7,70.5,29.82,South,176,0.0,0.0,96,0.00,,,0.00,VWS V14.01,2013-08-07 12:58:00,
2013-08-07 08:00:00,71.7,70.5,29.82,South,176,0.0,0.0,96,0.00,,,0.00,VWS V14.01,2013-08-07 13:00:00,
2013-08-07 08:01:00,71.7,70.5,29.82,South,176,0.0,0.0,96,0.00,,,0.00,VWS V14.01,2013-08-07 13:01:00,
2013-08-07 08:02:00,71.7,70.5,29.82,South,176,0.0,0.0,96,0.00,,,0.00,VWS V14.01,2013-08-07 13:02:00,
2013-08-07 08:04:00,71.7,70.5,29.82,South,176,0.0,0.0,96,0.00,,,0.00,VWS V14.01,2013-08-07 13:04:00,
2013-08-07 08:06:00,71.7,70.5,29.82,South,176,0.0,0.0,96,0.00,,,0.00,VWS V14.01,2013-08-07 13:06:00,
2013-08-07 08:07:00,71.7,70.5,29.82,South,176,0.0,0.0,96,0.00,,,0.00,VWS V14.01,2013-08-07 13:07:00,
2013-08-07 08:09:00,71.7,70.5,29.82,South,176,0.0,0.0,96,0.00,,,0.00,VWS V14.01,2013-08-07 13:09:00,
2013-08-07 08:11:00,71.7,70.5,29.82,South,176,0.0,0.0,96,0.00,,,0.00,VWS V14.01,2013-08-07 13:11:00,
2013-08-07 08:12:00,71.7,70.5,29.82,South,176,0.0,0.0,96,0.00,,,0.00,VWS V14.01,2013-08-07 13:12:00,
2013-08-07 08:14:00,71.7,70.5,29.82,South,176,0.0,0.0,96,0.00,,,0.00,VWS V14.01,2013-08-07 13:14:00,
2013-08-07 08:16:00,71.7,70.5,29.81,South,176,0.0,0.0,96,0.00,,,0.00,VWS V14.01,2013-08-07 13:16:00,
2013-08-07 08:17:00,71.7,70.5,29.81,South,176,0.0,0.0,96,0.00,,,0.00,VWS V14.01,2013-08-07 13:17:00,
2013-08-07 08:19:00,71.7,70.5,29.81,South,176,0.0,0.0,96,0.00,,,0.00,VWS V14.01,2013-08-07 13:19:00,
2013-08-07 08:21:00,71.7,70.5,29.81,South,177,0.0,0.0,96,0.00,,,0.00,VWS V14.01,2013-08-07 13:21:00,
2013-08-07 08:23:00,71.9,70.7,29.81,SSW,198,3.0,4.0,96,0.00,,,0.00,VWS V14.01,2013-08-07 13:23:00,
2013-08-07 08:24:00,71.9,70.7,29.81,SSW,192,0.0,4.0,96,0.00,,,0.00,VWS V14.01,2013-08-07 13:24:00,
2013-08-07 08:26:00,71.9,70.7,29.81,SSW,192,0.0,4.0,96,0.00,,,0.00,VWS V14.01,2013-08-07 13:26:00,
2013-08-07 08:28:00,71.9,70.7,29.81,South,190,0.0,4.0,96,0.00,,,0.00,VWS V14.01,2013-08-07 13:28:00,
2013-08-07 08:29:00,71.9,70.7,29.81,South,182,0.0,4.0,96,0.00,,,0.00,VWS V14.01,2013-08-07 13:29:00,
2013-08-07 08:30:00,72.0,70.8,29.81,South,182,0.0,4.0,96,0.00,,,0.00,VWS V14.01,2013-08-07 13:30:00,
2013-08-07 08:31:00,72.0,70.8,29.81,South,184,2.0,2.0,96,0.00,,,0.00,VWS V14.01,2013-08-07 13:31:00,
2013-08-07 08:32:00,72.0,70.8,29.81,SSW,196,0.0,4.0,96,0.00,,,0.00,VWS V14.01,2013-08-07 13:32:00,
2013-08-07 08:33:00,72.0,70.8,29.81,SSW,194,0.0,4.0,96,0.00,,,0.00,VWS V14.01,2013-08-07 13:33:00,
2013-08-07 08:34:00,72.0,70.8,29.81,SSW,198,3.0,4.0,96,0.00,,,0.00,VWS V14.01,2013-08-07 13:34:00,
2013-08-07 08:36:00,72.0,70.8,29.81,South,176,0.0,4.0,96,0.00,,,0.00,VWS V14.01,2013-08-07 13:36:00,
2013-08-07 08:37:00,72.0,70.8,29.81,South,177,0.0,4.0,96,0.00,,,0.00,VWS V14.01,2013-08-07 13:37:00,
2013-08-07 08:38:00,72.0,70.8,29.81,South,178,0.0,4.0,96,0.00,,,0.00,VWS V14.01,2013-08-07 13:38:00,
2013-08-07 08:39:00,72.0,70.8,29.81,SSE,163,0.0,4.0,96,0.00,,,0.00,VWS V14.01,2013-08-07 13:39:00,
2013-08-07 08:41:00,72.0,70.8,29.81,South,171,0.0,4.0,96,0.00,,,0.00,VWS V14.01,2013-08-07 13:41:00,
2013-08-07 08:42:00,72.0,70.8,29.81,South,188,1.0,4.0,96,0.00,,,0.00,VWS V14.01,2013-08-07 13:42:00,
2013-08-07 08:43:00,72.0,70.8,29.81,South,187,0.0,4.0,96,0.00,,,0.00,VWS V14.01,2013-08-07 13:43:00,
2013-08-07 08:45:00,72.0,70.8,29.81,SSW,196,0.0,4.0,96,0.00,,,0.00,VWS V14.01,2013-08-07 13:45:00,
2013-08-07 08:46:00,72.0,70.8,29.81,South,188,0.0,4.0,96,0.00,,,0.00,VWS V14.01,2013-08-07 13:46:00,
2013-08-07 08:47:00,72.2,71.0,29.81,South,189,0.0,4.0,96,0.00,,,0.00,VWS V14.01,2013-08-07 13:47:00,
2013-08-07 08:48:00,72.2,71.0,29.81,SSW,192,0.0,4.0,96,0.00,,,0.00,VWS V14.01,2013-08-07 13:48:00,
2013-08-07 08:50:00,72.2,71.0,29.81,SSW,192,0.0,4.0,96,0.00,,,0.00,VWS V14.01,2013-08-07 13:50:00,
2013-08-07 08:51:00,72.2,71.0,29.81,SSW,192,0.0,4.0,96,0.00,,,0.00,VWS V14.01,2013-08-07 13:51:00,
2013-08-07 08:52:00,72.2,71.0,29.81,South,190,0.0,4.0,96,0.00,,,0.00,VWS V14.01,2013-08-07 13:52:00,
2013-08-07 08:54:00,72.4,71.2,29.81,South,182,0.0,4.0,96,0.00,,,0.00,VWS V14.01,2013-08-07 13:54:00,
2013-08-07 08:55:00,72.4,71.2,29.81,South,182,0.0,4.0,96,0.00,,,0.00,VWS V14.01,2013-08-07 13:55:00,
2013-08-07 08:56:00,72.4,71.2,29.81,South,182,0.0,4.0,96,0.00,,,0.00,VWS V14.01,2013-08-07 13:56:00,
2013-08-07 08:57:00,72.4,71.2,29.81,South,182,0.0,4.0,96,0.00,,,0.00,VWS V14.01,2013-08-07 13:57:00,
2013-08-07 08:59:00,72.6,71.4,29.81,South,182,0.0,4.0,96,0.00,,,0.00,VWS V14.01,2013-08-07 13:59:00,
2013-08-07 09:00:00,72.6,71.4,29.81,South,182,0.0,4.0,96,0.00,,,0.00,VWS V14.01,2013-08-07 14:00:00,
2013-08-07 09:01:00,72.6,71.4,29.81,South,176,0.0,0.0,96,0.00,,,0.00,VWS V14.01,2013-08-07 14:01:00,
2013-08-07 09:02:00,72.6,71.4,29.81,SSW,197,0.0,1.0,96,0.00,,,0.00,VWS V14.01,2013-08-07 14:02:00,
2013-08-07 09:05:00,72.7,71.5,29.81,SSW,197,0.0,1.0,96,0.00,,,0.00,VWS V14.01,2013-08-07 14:05:00,
2013-08-07 09:06:00,72.7,71.5,29.81,SSW,197,0.0,1.0,96,0.00,,,0.00,VWS V14.01,2013-08-07 14:06:00,
2013-08-07 09:07:00,72.7,71.5,29.81,SSW,196,0.0,1.0,96,0.00,,,0.00,VWS V14.01,2013-08-07 14:07:00,
2013-08-07 09:10:00,72.9,71.7,29.81,South,188,0.0,2.0,96,0.00,,,0.00,VWS V14.01,2013-08-07 14:10:00,
2013-08-07 09:11:00,72.9,71.7,29.81,South,189,0.0,2.0,96,0.00,,,0.00,VWS V14.01,2013-08-07 14:11:00,
2013-08-07 09:12:00,72.9,71.7,29.81,South,188,0.0,2.0,96,0.00,,,0.00,VWS V14.01,2013-08-07 14:12:00,
2013-08-07 09:15:00,72.9,71.4,29.81,SSW,199,0.0,6.0,95,0.00,,,0.00,VWS V14.01,2013-08-07 14:15:00,
2013-08-07 09:16:00,73.1,71.6,29.81,SSW,199,0.0,6.0,95,0.00,,,0.00,VWS V14.01,2013-08-07 14:16:00,
2013-08-07 09:17:00,73.1,71.6,29.81,SSW,205,0.0,6.0,95,0.00,,,0.00,VWS V14.01,2013-08-07 14:17:00,
2013-08-07 09:18:00,73.1,71.6,29.81,SSW,205,0.0,6.0,95,0.00,,,0.00,VWS V14.01,2013-08-07 14:18:00,
2013-08-07 09:20:00,73.1,71.6,29.81,SSW,198,0.0,6.0,95,0.00,,,0.00,VWS V14.01,2013-08-07 14:20:00,
2013-08-07 09:21:00,73.1,71.6,29.81,SSW,211,0.0,6.0,95,0.00,,,0.00,VWS V14.01,2013-08-07 14:21:00,
2013-08-07 09:22:00,73.1,71.6,29.81,WSW,248,0.0,6.0,95,0.00,,,0.00,VWS V14.01,2013-08-07 14:22:00,
2013-08-07 09:23:00,73.2,71.7,29.81,WSW,244,0.0,6.0,95,0.00,,,0.00,VWS V14.01,2013-08-07 14:23:00,
2013-08-07 09:25:00,73.2,71.7,29.81,SSW,212,0.0,6.0,95,0.00,,,0.00,VWS V14.01,2013-08-07 14:25:00,
2013-08-07 09:26:00,73.2,71.7,29.81,SSW,212,0.0,6.0,95,0.00,,,0.00,VWS V14.01,2013-08-07 14:26:00,
2013-08-07 09:27:00,73.4,71.9,29.81,SSW,209,0.0,6.0,95,0.00,,,0.00,VWS V14.01,2013-08-07 14:27:00,
2013-08-07 09:28:00,73.4,71.9,29.81,SW,225,0.0,6.0,95,0.00,,,0.00,VWS V14.01,2013-08-07 14:28:00,
2013-08-07 09:29:00,73.4,71.9,29.81,SSE,161,0.0,6.0,95,0.00,,,0.00,VWS V14.01,2013-08-07 14:29:00,
2013-08-07 09:30:00,73.4,71.6,29.80,South,188,0.0,6.0,94,0.00,,,0.00,VWS V14.01,2013-08-07 14:30:00,
2013-08-07 09:31:00,73.4,71.6,29.80,South,188,0.0,0.0,94,0.00,,,0.00,VWS V14.01,2013-08-07 14:31:00,
2013-08-07 09:32:00,73.6,71.8,29.80,SSW,213,0.0,0.0,94,0.00,,,0.00,VWS V14.01,2013-08-07 14:32:00,
2013-08-07 09:33:00,73.6,71.8,29.80,SSE,167,0.0,0.0,94,0.00,,,0.00,VWS V14.01,2013-08-07 14:33:00,
2013-08-07 09:34:00,73.6,71.8,29.80,South,180,0.0,0.0,94,0.00,,,0.00,VWS V14.01,2013-08-07 14:34:00,
2013-08-07 09:35:00,73.6,71.8,29.80,South,180,0.0,0.0,94,0.00,,,0.00,VWS V14.01,2013-08-07 14:35:00,
2013-08-07 09:36:00,73.6,71.8,29.80,South,180,0.0,0.0,94,0.00,,,0.00,VWS V14.01,2013-08-07 14:36:00,
2013-08-07 09:37:00,73.8,72.0,29.80,South,188,0.0,5.0,94,0.00,,,0.00,VWS V14.01,2013-08-07 14:37:00,
2013-08-07 09:38:00,73.8,72.0,29.80,South,187,0.0,5.0,94,0.00,,,0.00,VWS V14.01,2013-08-07 14:38:00,
2013-08-07 09:39:00,73.8,71.7,29.80,South,179,0.0,5.0,93,0.00,,,0.00,VWS V14.01,2013-08-07 14:39:00,
2013-08-07 09:41:00,73.9,71.8,29.80,South,186,0.0,5.0,93,0.00,,,0.00,VWS V14.01,2013-08-07 14:41:00,
2013-08-07 09:42:00,73.9,71.8,29.80,SSW,195,0.0,5.0,93,0.00,,,0.00,VWS V14.01,2013-08-07 14:42:00,
2013-08-07 09:43:00,73.9,71.8,29.80,SSW,195,0.0,5.0,93,0.00,,,0.00,VWS V14.01,2013-08-07 14:43:00,
2013-08-07 09:44:00,74.1,71.6,29.80,SSE,163,2.0,5.0,92,0.00,,,0.00,VWS V14.01,2013-08-07 14:44:00,
2013-08-07 09:46:00,74.1,71.6,29.81,South,182,0.0,5.0,92,0.00,,SCT020,0.00,VWS V14.01,2013-08-07 14:46:00,
2013-08-07 09:48:00,74.1,71.6,29.81,SSW,199,0.0,5.0,92,0.00,,SCT020,0.00,VWS V14.01,2013-08-07 14:48:00,
2013-08-07 09:49:00,74.1,71.3,29.81,WNW,295,0.0,5.0,91,0.00,,SCT020,0.00,VWS V14.01,2013-08-07 14:49:00,
2013-08-07 09:51:00,74.3,71.5,29.81,SSW,200,0.0,5.0,91,0.00,,SCT020,0.00,VWS V14.01,2013-08-07 14:51:00,
2013-08-07 09:53:00,74.3,71.2,29.81,SSW,211,0.0,5.0,90,0.00,,SCT020,0.00,VWS V14.01,2013-08-07 14:53:00,
2013-08-07 09:54:00,74.3,71.2,29.81,SSW,211,0.0,5.0,90,0.00,,SCT020,0.00,VWS V14.01,2013-08-07 14:54:00,
2013-08-07 09:55:00,74.5,71.1,29.81,SSW,211,0.0,5.0,89,0.00,,SCT020,0.00,VWS V14.01,2013-08-07 14:55:00,
2013-08-07 09:56:00,74.5,71.1,29.81,SSW,211,0.0,5.0,89,0.00,,SCT020,0.00,VWS V14.01,2013-08-07 14:56:00,
2013-08-07 09:57:00,74.6,70.8,29.81,SSW,211,0.0,5.0,88,0.00,,SCT020,0.00,VWS V14.01,2013-08-07 14:57:00,
2013-08-07 09:58:00,74.6,70.8,29.81,SSW,211,0.0,5.0,88,0.00,,SCT020,0.00,VWS V14.01,2013-08-07 14:58:00,
2013-08-07 09:59:00,74.8,71.0,29.81,SSW,211,0.0,5.0,88,0.00,,SCT020,0.00,VWS V14.01,2013-08-07 14:59:00,
2013-08-07 10:00:00,74.8,71.0,29.82,SSW,211,0.0,5.0,88,0.00,,SCT020,0.00,VWS V14.01,2013-08-07 15:00:00,
2013-08-07 10:01:00,75.0,70.9,29.82,SSW,211,0.0,0.0,87,0.00,,CLR,0.00,VWS V14.01,2013-08-07 15:01:00,
2013-08-07 10:02:00,75.0,70.9,29.82,SSW,210,0.0,0.0,87,0.00,,CLR,0.00,VWS V14.01,2013-08-07 15:02:00,
2013-08-07 10:03:00,75.2,71.1,29.82,SSW,210,0.0,0.0,87,0.00,,CLR,0.00,VWS V14.01,2013-08-07 15:03:00,
2013-08-07 10:04:00,75.2,70.7,29.82,SSW,210,0.0,0.0,86,0.00,,CLR,0.00,VWS V14.01,2013-08-07 15:04:00,
2013-08-07 10:05:00,75.2,70.7,29.82,SSW,210,0.0,0.0,86,0.00,,CLR,0.00,VWS V14.01,2013-08-07 15:05:00,
2013-08-07 10:06:00,75.3,70.5,29.82,SSW,200,0.0,0.0,85,0.00,,CLR,0.00,VWS V14.01,2013-08-07 15:06:00,
2013-08-07 10:07:00,75.3,70.5,29.82,SSW,202,0.0,1.0,85,0.00,,CLR,0.00,VWS V14.01,2013-08-07 15:07:00,
2013-08-07 10:09:00,75.3,70.1,29.82,SSW,208,0.0,1.0,84,0.00,,CLR,0.00,VWS V14.01,2013-08-07 15:09:00,
2013-08-07 10:10:00,75.5,70.3,29.82,SSW,205,0.0,1.0,84,0.00,,CLR,0.00,VWS V14.01,2013-08-07 15:10:00,
2013-08-07 10:11:00,75.5,70.3,29.82,West,267,0.0,1.0,84,0.00,,CLR,0.00,VWS V14.01,2013-08-07 15:11:00,
2013-08-07 10:12:00,75.5,70.3,29.82,West,267,0.0,1.0,84,0.00,,CLR,0.00,VWS V14.01,2013-08-07 15:12:00,
2013-08-07 10:14:00,75.5,70.0,29.82,SSW,213,0.0,1.0,83,0.00,,CLR,0.00,VWS V14.01,2013-08-07 15:14:00,
2013-08-07 10:15:00,75.7,70.2,29.82,SSW,212,0.0,1.0,83,0.00,,CLR,0.00,VWS V14.01,2013-08-07 15:15:00,
2013-08-07 10:16:00,75.7,70.2,29.82,SSW,194,0.0,1.0,83,0.00,,CLR,0.00,VWS V14.01,2013-08-07 15:16:00,
2013-08-07 10:18:00,75.7,70.2,29.82,SSW,194,0.0,1.0,83,0.00,,CLR,0.00,VWS V14.01,2013-08-07 15:18:00,
2013-08-07 10:19:00,75.7,70.2,29.82,SSW,194,0.0,1.0,83,0.00,,CLR,0.00,VWS V14.01,2013-08-07 15:19:00,
2013-08-07 10:20:00,75.9,70.4,29.82,SSW,194,0.0,1.0,83,0.00,,CLR,0.00,VWS V14.01,2013-08-07 15:20:00,
2013-08-07 10:21:00,75.9,70.4,29.82,SSW,193,0.0,1.0,83,0.00,,CLR,0.00,VWS V14.01,2013-08-07 15:21:00,
2013-08-07 10:23:00,76.0,70.5,29.82,SSW,194,0.0,1.0,83,0.00,,CLR,0.00,VWS V14.01,2013-08-07 15:23:00,
2013-08-07 10:24:00,76.2,70.7,29.82,SSW,194,0.0,1.0,83,0.00,,CLR,0.00,VWS V14.01,2013-08-07 15:24:00,
2013-08-07 10:26:00,76.2,69.9,29.82,SSW,195,0.0,1.0,81,0.00,,CLR,0.00,VWS V14.01,2013-08-07 15:26:00,
2013-08-07 10:27:00,76.4,70.1,29.82,SSW,210,0.0,9.0,81,0.00,,CLR,0.00,VWS V14.01,2013-08-07 15:27:00,
2013-08-07 10:28:00,76.4,70.1,29.82,SSW,211,0.0,9.0,81,0.00,,CLR,0.00,VWS V14.01,2013-08-07 15:28:00,
2013-08-07 10:29:00,76.4,70.1,29.82,SSW,211,2.0,9.0,81,0.00,,CLR,0.00,VWS V14.01,2013-08-07 15:29:00,
2013-08-07 10:30:00,76.6,70.3,29.82,SSW,195,2.0,9.0,81,0.00,,,0.00,VWS V14.01,2013-08-07 15:30:00,
2013-08-07 10:31:00,76.6,70.3,29.82,SSW,195,4.0,4.0,81,0.00,,CLR,0.00,VWS V14.01,2013-08-07 15:31:00,
2013-08-07 10:32:00,76.7,70.1,29.82,SSW,207,0.0,4.0,80,0.00,,CLR,0.00,VWS V14.01,2013-08-07 15:32:00,
2013-08-07 10:33:00,76.7,70.1,29.82,SSW,207,0.0,4.0,80,0.00,,CLR,0.00,VWS V14.01,2013-08-07 15:33:00,
2013-08-07 10:34:00,76.9,70.3,29.82,SSW,196,0.0,4.0,80,0.00,,CLR,0.00,VWS V14.01,2013-08-07 15:34:00,
2013-08-07 10:36:00,77.1,70.1,29.82,NW,317,0.0,4.0,79,0.00,,CLR,0.00,VWS V14.01,2013-08-07 15:36:00,
2013-08-07 10:37:00,77.3,69.9,29.82,WSW,240,2.0,4.0,78,0.00,,CLR,0.00,VWS V14.01,2013-08-07 15:37:00,
2013-08-07 10:38:00,77.3,69.9,29.82,SW,227,0.0,4.0,78,0.00,,CLR,0.00,VWS V14.01,2013-08-07 15:38:00,
2013-08-07 10:39:00,77.3,69.9,29.82,SSW,211,0.0,4.0,78,0.00,,CLR,0.00,VWS V14.01,2013-08-07 15:39:00,
2013-08-07 10:40:00,77.5,70.1,29.82,SSW,208,0.0,4.0,78,0.00,,CLR,0.00,VWS V14.01,2013-08-07 15:40:00,
2013-08-07 10:41:00,77.6,70.2,29.82,SSW,209,0.0,4.0,78,0.00,,CLR,0.00,VWS V14.01,2013-08-07 15:41:00,
2013-08-07 10:42:00,77.8,70.0,29.82,SSW,204,0.0,4.0,77,0.00,,CLR,0.00,VWS V14.01,2013-08-07 15:42:00,
2013-08-07 10:43:00,77.8,70.4,29.82,SSW,205,0.0,4.0,78,0.00,,CLR,0.00,VWS V14.01,2013-08-07 15:43:00,
2013-08-07 10:44:00,77.8,70.0,29.82,SSW,205,0.0,4.0,77,0.00,,CLR,0.00,VWS V14.01,2013-08-07 15:44:00,
2013-08-07 10:45:00,77.8,70.0,29.82,SSW,205,0.0,4.0,77,0.00,,CLR,0.00,VWS V14.01,2013-08-07 15:45:00,
2013-08-07 10:46:00,78.0,70.2,29.82,SSW,205,0.0,4.0,77,0.00,,CLR,0.00,VWS V14.01,2013-08-07 15:46:00,
2013-08-07 10:48:00,78.2,70.4,29.82,SSW,205,0.0,4.0,77,0.00,,CLR,0.00,VWS V14.01,2013-08-07 15:48:00,
2013-08-07 10:49:00,78.2,70.0,29.82,SSW,205,0.0,4.0,76,0.00,,CLR,0.00,VWS V14.01,2013-08-07 15:49:00,
2013-08-07 10:51:00,78.2,70.4,29.82,SSW,207,0.0,4.0,77,0.00,,CLR,0.00,VWS V14.01,2013-08-07 15:51:00,
2013-08-07 10:53:00,78.4,70.2,29.82,SSW,213,0.0,4.0,76,0.00,,CLR,0.00,VWS V14.01,2013-08-07 15:53:00,
2013-08-07 10:54:00,78.4,70.6,29.82,SSW,207,0.0,4.0,77,0.00,,CLR,0.00,VWS V14.01,2013-08-07 15:54:00,
2013-08-07 10:56:00,78.5,70.3,29.82,South,185,0.0,4.0,76,0.00,,CLR,0.00,VWS V14.01,2013-08-07 15:56:00,
2013-08-07 10:57:00,78.5,70.3,29.82,South,187,0.0,4.0,76,0.00,,CLR,0.00,VWS V14.01,2013-08-07 15:57:00,
2013-08-07 10:58:00,78.5,70.3,29.82,South,187,0.0,4.0,76,0.00,,CLR,0.00,VWS V14.01,2013-08-07 15:58:00,
2013-08-07 10:59:00,78.7,70.5,29.82,South,187,0.0,4.0,76,0.00,,CLR,0.00,VWS V14.01,2013-08-07 15:59:00,
2013-08-07 11:00:00,78.9,70.3,29.81,South,187,0.0,4.0,75,0.00,,CLR,0.00,VWS V14.01,2013-08-07 16:00:00,
2013-08-07 11:01:00,78.9,70.3,29.81,South,187,0.0,0.0,75,0.00,,CLR,0.00,VWS V14.01,2013-08-07 16:01:00,
2013-08-07 11:02:00,78.9,70.3,29.81,South,187,0.0,0.0,75,0.00,,CLR,0.00,VWS V14.01,2013-08-07 16:02:00,
2013-08-07 11:04:00,79.1,70.5,29.81,South,181,0.0,0.0,75,0.00,,CLR,0.00,VWS V14.01,2013-08-07 16:04:00,
2013-08-07 11:05:00,79.1,70.1,29.81,South,180,0.0,0.0,74,0.00,,CLR,0.00,VWS V14.01,2013-08-07 16:05:00,
2013-08-07 11:06:00,79.1,70.1,29.81,SSW,194,2.0,2.0,74,0.00,,CLR,0.00,VWS V14.01,2013-08-07 16:06:00,
2013-08-07 11:07:00,79.1,70.1,29.81,SSW,194,0.0,2.0,74,0.00,,CLR,0.00,VWS V14.01,2013-08-07 16:07:00,
2013-08-07 11:09:00,79.3,70.3,29.81,SSW,194,0.0,2.0,74,0.00,,CLR,0.00,VWS V14.01,2013-08-07 16:09:00,
2013-08-07 11:11:00,79.3,70.7,29.81,SSW,194,0.0,2.0,75,0.00,,CLR,0.00,VWS V14.01,2013-08-07 16:11:00,
2013-08-07 11:12:00,79.5,70.5,29.81,SSW,195,0.0,2.0,74,0.00,,CLR,0.00,VWS V14.01,2013-08-07 16:12:00,
2013-08-07 11:14:00,79.7,70.7,29.81,SSW,195,0.0,2.0,74,0.00,,CLR,0.00,VWS V14.01,2013-08-07 16:14:00,
2013-08-07 11:15:00,80.0,71.0,29.80,SSW,195,0.0,2.0,74,0.00,,CLR,0.00,VWS V14.01,2013-08-07 16:15:00,
2013-08-07 11:17:00,80.0,70.6,29.80,SSW,195,0.0,2.0,73,0.00,,CLR,0.00,VWS V14.01,2013-08-07 16:17:00,
2013-08-07 11:19:00,80.4,71.0,29.80,SSW,195,0.0,2.0,73,0.00,,CLR,0.00,VWS V14.01,2013-08-07 16:19:00,
2013-08-07 11:21:00,80.6,70.8,29.80,SSW,195,0.0,2.0,72,0.00,,CLR,0.00,VWS V14.01,2013-08-07 16:21:00,
2013-08-07 11:22:00,80.6,69.9,29.80,SSW,211,0.0,5.0,70,0.00,,CLR,0.00,VWS V14.01,2013-08-07 16:22:00,
2013-08-07 11:24:00,80.8,70.5,29.80,SW,215,0.0,5.0,71,0.00,,CLR,0.00,VWS V14.01,2013-08-07 16:24:00,
2013-08-07 11:25:00,81.0,70.3,29.80,SW,219,0.0,5.0,70,0.00,,CLR,0.00,VWS V14.01,2013-08-07 16:25:00,
2013-08-07 11:26:00,81.0,70.3,29.80,WSW,244,0.0,5.0,70,0.00,,CLR,0.00,VWS V14.01,2013-08-07 16:26:00,
2013-08-07 11:27:00,81.1,70.4,29.80,WSW,244,0.0,5.0,70,0.00,,CLR,0.00,VWS V14.01,2013-08-07 16:27:00,
2013-08-07 11:28:00,81.1,70.4,29.80,WSW,244,0.0,5.0,70,0.00,,CLR,0.00,VWS V14.01,2013-08-07 16:28:00,
2013-08-07 11:29:00,81.3,70.2,29.80,SSW,198,0.0,5.0,69,0.00,,CLR,0.00,VWS V14.01,2013-08-07 16:29:00,
2013-08-07 11:30:00,81.3,70.2,29.80,SSW,199,0.0,5.0,69,0.00,,SCT100,0.00,VWS V14.01,2013-08-07 16:30:00,
2013-08-07 11:31:00,81.3,70.2,29.80,SSW,199,0.0,0.0,69,0.00,,SCT100,0.00,VWS V14.01,2013-08-07 16:31:00,
2013-08-07 11:32:00,81.3,70.2,29.80,SSW,202,0.0,0.0,69,0.00,,SCT100,0.00,VWS V14.01,2013-08-07 16:32:00,
2013-08-07 11:33:00,81.5,69.9,29.80,SSW,202,0.0,0.0,68,0.00,,SCT100,0.00,VWS V14.01,2013-08-07 16:33:00,
2013-08-07 11:34:00,81.5,69.5,29.80,SSW,202,0.0,0.0,67,0.00,,SCT100,0.00,VWS V14.01,2013-08-07 16:34:00,
2013-08-07 11:35:00,81.5,69.9,29.80,SSW,203,0.0,0.0,68,0.00,,SCT100,0.00,VWS V14.01,2013-08-07 16:35:00,
2013-08-07 11:36:00,81.5,69.9,29.80,SSE,150,0.0,0.0,68,0.00,,SCT100,0.00,VWS V14.01,2013-08-07 16:36:00,
2013-08-07 11:37:00,81.5,70.4,29.80,SSW,198,0.0,2.0,69,0.00,,SCT100,0.00,VWS V14.01,2013-08-07 16:37:00,
2013-08-07 11:38:00,81.5,70.4,29.80,SSW,199,0.0,2.0,69,0.00,,SCT100,0.00,VWS V14.01,2013-08-07 16:38:00,
2013-08-07 11:39:00,81.5,69.9,29.80,SSW,199,0.0,2.0,68,0.00,,SCT100,0.00,VWS V14.01,2013-08-07 16:39:00,
2013-08-07 11:40:00,81.5,70.4,29.80,SSW,199,0.0,2.0,69,0.00,,SCT100,0.00,VWS V14.01,2013-08-07 16:40:00,
2013-08-07 11:41:00,81.5,70.4,29.80,SSW,196,3.0,3.0,69,0.00,,SCT100,0.00,VWS V14.01,2013-08-07 16:41:00,
2013-08-07 11:42:00,81.5,70.4,29.80,SSW,196,0.0,3.0,69,0.00,,SCT100,0.00,VWS V14.01,2013-08-07 16:42:00,
2013-08-07 11:43:00,81.5,69.9,29.80,South,191,0.0,3.0,68,0.00,,SCT100,0.00,VWS V14.01,2013-08-07 16:43:00,
2013-08-07 11:45:00,81.5,69.9,29.79,SSW,202,0.0,3.0,68,0.00,,SCT100,0.00,VWS V14.01,2013-08-07 16:45:00,
2013-08-07 11:46:00,81.5,69.9,29.79,SSW,202,0.0,3.0,68,0.00,,CLR,0.00,VWS V14.01,2013-08-07 16:46:00,
2013-08-07 11:48:00,81.7,69.7,29.79,SSW,202,0.0,3.0,67,0.00,,CLR,0.00,VWS V14.01,2013-08-07 16:48:00,
2013-08-07 11:50:00,81.9,70.7,29.79,SSW,202,0.0,3.0,69,0.00,,CLR,0.00,VWS V14.01,2013-08-07 16:50:00,
2013-08-07 11:51:00,82.1,70.9,29.79,SSW,202,0.0,3.0,69,0.00,,CLR,0.00,VWS V14.01,2013-08-07 16:51:00,
2013-08-07 11:53:00,82.3,70.7,29.79,SSW,203,0.0,3.0,68,0.00,,CLR,0.00,VWS V14.01,2013-08-07 16:53:00,
2013-08-07 11:54:00,82.5,70.9,29.79,SSW,203,0.0,3.0,68,0.00,,CLR,0.00,VWS V14.01,2013-08-07 16:54:00,
2013-08-07 11:56:00,82.9,71.3,29.79,SSW,203,0.0,3.0,68,0.00,,CLR,0.00,VWS V14.01,2013-08-07 16:56:00,
2013-08-07 11:58:00,83.3,71.6,29.79,NNW,327,0.0,3.0,68,0.00,,CLR,0.00,VWS V14.01,2013-08-07 16:58:00,
2013-08-07 11:59:00,83.5,70.9,29.79,WNW,290,0.0,3.0,66,0.00,,CLR,0.00,VWS V14.01,2013-08-07 16:59:00,
2013-08-07 12:00:00,83.7,70.2,29.79,SSW,203,0.0,3.0,64,0.00,,,0.00,VWS V14.01,2013-08-07 17:00:00,
2013-08-07 12:01:00,83.7,70.2,29.79,SSW,212,0.0,0.0,64,0.00,,CLR,0.00,VWS V14.01,2013-08-07 17:01:00,
2013-08-07 12:02:00,83.7,69.8,29.79,West,267,0.0,0.0,63,0.00,,CLR,0.00,VWS V14.01,2013-08-07 17:02:00,
2013-08-07 12:03:00,83.7,70.2,29.79,WSW,238,0.0,1.0,64,0.00,,CLR,0.00,VWS V14.01,2013-08-07 17:03:00,
2013-08-07 12:04:00,83.7,70.2,29.79,SW,229,0.0,1.0,64,0.00,,CLR,0.00,VWS V14.01,2013-08-07 17:04:00,
2013-08-07 12:06:00,83.5,69.1,29.79,WSW,244,0.0,1.0,62,0.00,,CLR,0.00,VWS V14.01,2013-08-07 17:06:00,
2013-08-07 12:07:00,83.7,69.3,29.79,SW,231,0.0,1.0,62,0.00,,CLR,0.00,VWS V14.01,2013-08-07 17:07:00,
2013-08-07 12:08:00,83.7,70.7,29.79,WSW,238,0.0,1.0,65,0.00,,CLR,0.00,VWS V14.01,2013-08-07 17:08:00,
2013-08-07 12:09:00,83.7,70.7,29.79,SW,224,0.0,1.0,65,0.00,,CLR,0.00,VWS V14.01,2013-08-07 17:09:00,
2013-08-07 12:11:00,83.9,70.9,29.79,NNW,331,0.0,1.0,65,0.00,,CLR,0.00,VWS V14.01,2013-08-07 17:11:00,
2013-08-07 12:12:00,83.9,70.0,29.79,NW,318,0.0,1.0,63,0.00,,CLR,0.00,VWS V14.01,2013-08-07 17:12:00,
2013-08-07 12:14:00,84.0,70.5,29.79,West,271,0.0,1.0,64,0.00,,CLR,0.00,VWS V14.01,2013-08-07 17:14:00,
2013-08-07 12:16:00,84.0,69.1,29.79,SW,217,0.0,1.0,61,0.00,,CLR,0.00,VWS V14.01,2013-08-07 17:16:00,
2013-08-07 12:17:00,84.0,69.6,29.79,SW,232,5.0,5.0,62,0.00,,CLR,0.00,VWS V14.01,2013-08-07 17:17:00,
2013-08-07 12:19:00,84.0,70.1,29.79,WNW,283,0.0,5.0,63,0.00,,CLR,0.00,VWS V14.01,2013-08-07 17:19:00,
2013-08-07 12:21:00,84.0,69.6,29.79,WNW,296,0.0,5.0,62,0.00,,CLR,0.00,VWS V14.01,2013-08-07 17:21:00,
2013-08-07 12:22:00,84.0,69.6,29.79,NNE,12,0.0,5.0,62,0.00,,CLR,0.00,VWS V14.01,2013-08-07 17:22:00,
2013-08-07 12:24:00,84.2,69.3,29.79,WSW,252,0.0,5.0,61,0.00,,CLR,0.00,VWS V14.01,2013-08-07 17:24:00,
2013-08-07 12:26:00,84.4,70.0,29.79,NW,304,0.0,5.0,62,0.00,,CLR,0.00,VWS V14.01,2013-08-07 17:26:00,
2013-08-07 12:27:00,84.4,70.0,29.79,WNW,289,0.0,5.0,62,0.00,,CLR,0.00,VWS V14.01,2013-08-07 17:27:00,
2013-08-07 12:28:00,84.6,70.2,29.79,NW,326,0.0,5.0,62,0.00,,CLR,0.00,VWS V14.01,2013-08-07 17:28:00,
2013-08-07 12:29:00,84.6,68.7,29.79,NW,323,1.0,11.0,59,0.00,,CLR,0.00,VWS V14.01,2013-08-07 17:29:00,
2013-08-07 12:30:00,84.6,69.7,29.80,WSW,251,0.0,11.0,61,0.00,,CLR,0.00,VWS V14.01,2013-08-07 17:30:00,
2013-08-07 12:32:00,84.6,69.2,29.80,WNW,284,0.0,0.0,60,0.00,,CLR,0.00,VWS V14.01,2013-08-07 17:32:00,
2013-08-07 12:33:00,84.6,69.7,29.80,WNW,301,0.0,11.0,61,0.00,,CLR,0.00,VWS V14.01,2013-08-07 17:33:00,
2013-08-07 12:34:00,84.6,69.2,29.80,NW,317,0.0,11.0,60,0.00,,CLR,0.00,VWS V14.01,2013-08-07 17:34:00,
2013-08-07 12:35:00,84.6,69.2,29.80,West,279,0.0,11.0,60,0.00,,CLR,0.00,VWS V14.01,2013-08-07 17:35:00,
2013-08-07 12:37:00,84.6,69.2,29.80,NNW,327,0.0,11.0,60,0.00,,CLR,0.00,VWS V14.01,2013-08-07 17:37:00,
2013-08-07 12:38:00,84.6,69.2,29.80,WSW,250,0.0,11.0,60,0.00,,CLR,0.00,VWS V14.01,2013-08-07 17:38:00,
2013-08-07 12:39:00,84.6,69.7,29.80,WNW,300,0.0,11.0,61,0.00,,CLR,0.00,VWS V14.01,2013-08-07 17:39:00,
2013-08-07 12:41:00,84.8,68.9,29.80,South,178,0.0,11.0,59,0.00,,CLR,0.00,VWS V14.01,2013-08-07 17:41:00,
2013-08-07 12:42:00,84.8,69.9,29.80,SW,214,0.0,11.0,61,0.00,,CLR,0.00,VWS V14.01,2013-08-07 17:42:00,
2013-08-07 12:43:00,84.8,69.9,29.80,SW,227,0.0,11.0,61,0.00,,CLR,0.00,VWS V14.01,2013-08-07 17:43:00,
2013-08-07 12:44:00,84.8,69.4,29.80,SW,225,0.0,11.0,60,0.00,,CLR,0.00,VWS V14.01,2013-08-07 17:44:00,
2013-08-07 12:46:00,84.8,69.4,29.80,NW,316,0.0,11.0,60,0.00,,CLR,0.00,VWS V14.01,2013-08-07 17:46:00,
2013-08-07 12:48:00,84.8,69.9,29.80,WNW,294,0.0,11.0,61,0.00,,CLR,0.00,VWS V14.01,2013-08-07 17:48:00,
2013-08-07 12:50:00,84.8,70.3,29.80,WNW,294,0.0,11.0,62,0.00,,CLR,0.00,VWS V14.01,2013-08-07 17:50:00,
2013-08-07 12:51:00,85.0,70.5,29.80,WNW,293,0.0,11.0,62,0.00,,CLR,0.00,VWS V14.01,2013-08-07 17:51:00,
2013-08-07 12:53:00,85.0,70.5,29.80,NW,315,0.0,11.0,62,0.00,,CLR,0.00,VWS V14.01,2013-08-07 17:53:00,
2013-08-07 12:55:00,85.0,69.6,29.80,West,260,0.0,11.0,60,0.00,,CLR,0.00,VWS V14.01,2013-08-07 17:55:00,
2013-08-07 12:56:00,85.0,70.1,29.80,NW,310,2.0,11.0,61,0.00,,CLR,0.00,VWS V14.01,2013-08-07 17:56:00,
2013-08-07 12:58:00,85.0,70.5,29.80,NW,313,0.0,11.0,62,0.00,,CLR,0.00,VWS V14.01,2013-08-07 17:58:00,
2013-08-07 12:59:00,85.2,70.7,29.80,NW,310,0.0,11.0,62,0.00,,CLR,0.00,VWS V14.01,2013-08-07 17:59:00,
2013-08-07 13:00:00,85.2,69.8,29.80,NW,306,7.0,12.0,60,0.00,,CLR,0.00,VWS V14.01,2013-08-07 18:00:00,
2013-08-07 13:02:00,85.0,69.1,29.80,West,275,1.0,6.0,59,0.00,,CLR,0.00,VWS V14.01,2013-08-07 18:02:00,
2013-08-07 13:03:00,85.0,69.1,29.80,WNW,294,0.0,6.0,59,0.00,,CLR,0.00,VWS V14.01,2013-08-07 18:03:00,
2013-08-07 13:04:00,84.8,68.9,29.80,WSW,253,0.0,6.0,59,0.00,,CLR,0.00,VWS V14.01,2013-08-07 18:04:00,
2013-08-07 13:06:00,84.8,68.9,29.80,WSW,244,0.0,6.0,59,0.00,,CLR,0.00,VWS V14.01,2013-08-07 18:06:00,
2013-08-07 13:07:00,84.6,68.7,29.80,West,265,2.0,6.0,59,0.00,,CLR,0.00,VWS V14.01,2013-08-07 18:07:00,
2013-08-07 13:08:00,84.6,68.2,29.80,West,266,0.0,6.0,58,0.00,,CLR,0.00,VWS V14.01,2013-08-07 18:08:00,
2013-08-07 13:09:00,84.6,68.2,29.80,West,278,0.0,6.0,58,0.00,,CLR,0.00,VWS V14.01,2013-08-07 18:09:00,
2013-08-07 13:11:00,84.2,67.8,29.80,West,263,0.0,6.0,58,0.00,,CLR,0.00,VWS V14.01,2013-08-07 18:11:00,
2013-08-07 13:12:00,84.2,67.8,29.80,NW,318,0.0,6.0,58,0.00,,CLR,0.00,VWS V14.01,2013-08-07 18:12:00,
2013-08-07 13:13:00,84.2,68.3,29.80,West,276,0.0,6.0,59,0.00,,CLR,0.00,VWS V14.01,2013-08-07 18:13:00,
2013-08-07 13:14:00,84.2,68.8,29.80,West,276,0.0,6.0,60,0.00,,CLR,0.00,VWS V14.01,2013-08-07 18:14:00,
2013-08-07 13:16:00,84.2,69.3,29.80,WNW,282,0.0,6.0,61,0.00,,CLR,0.00,VWS V14.01,2013-08-07 18:16:00,
2013-08-07 13:17:00,84.2,69.3,29.80,West,259,0.0,6.0,61,0.00,,CLR,0.00,VWS V14.01,2013-08-07 18:17:00,
2013-08-07 13:18:00,84.0,69.1,29.80,West,259,0.0,6.0,61,0.00,,CLR,0.00,VWS V14.01,2013-08-07 18:18:00,
2013-08-07 13:19:00,84.0,69.1,29.80,West,260,0.0,6.0,61,0.00,,CLR,0.00,VWS V14.01,2013-08-07 18:19:00,
2013-08-07 13:22:00,84.0,69.6,29.80,West,260,0.0,6.0,62,0.00,,CLR,0.00,VWS V14.01,2013-08-07 18:22:00,
2013-08-07 13:23:00,84.0,68.6,29.80,West,273,0.0,6.0,60,0.00,,CLR,0.00,VWS V14.01,2013-08-07 18:23:00,
2013-08-07 13:24:00,84.0,68.6,29.80,West,273,0.0,6.0,60,0.00,,CLR,0.00,VWS V14.01,2013-08-07 18:24:00,
2013-08-07 13:27:00,84.0,69.6,29.80,West,273,0.0,6.0,62,0.00,,CLR,0.00,VWS V14.01,2013-08-07 18:27:00,
2013-08-07 13:28:00,84.2,69.8,29.80,SW,219,0.0,6.0,62,0.00,,CLR,0.00,VWS V14.01,2013-08-07 18:28:00,
2013-08-07 13:29:00,84.2,69.8,29.80,SW,219,0.0,6.0,62,0.00,,CLR,0.00,VWS V14.01,2013-08-07 18:29:00,
2013-08-07 13:30:00,84.2,69.8,29.80,SW,219,0.0,6.0,62,0.00,,,0.00,VWS V14.01,2013-08-07 18:30:00,
2013-08-07 13:32:00,84.2,69.8,29.80,SW,219,0.0,0.0,62,0.00,,CLR,0.00,VWS V14.01,2013-08-07 18:32:00,
2013-08-07 13:33:00,84.2,69.8,29.80,SW,219,0.0,0.0,62,0.00,,CLR,0.00,VWS V14.01,2013-08-07 18:33:00,
2013-08-07 13:34:00,84.2,69.8,29.80,SW,218,0.0,0.0,62,0.00,,CLR,0.00,VWS V14.01,2013-08-07 18:34:00,
2013-08-07 13:36:00,84.2,69.8,29.80,SW,233,0.0,0.0,62,0.00,,CLR,0.00,VWS V14.01,2013-08-07 18:36:00,
2013-08-07 13:38:00,84.2,70.2,29.80,SW,233,0.0,0.0,63,0.00,,CLR,0.00,VWS V14.01,2013-08-07 18:38:00,
2013-08-07 13:39:00,84.2,70.2,29.80,SW,233,0.0,0.0,63,0.00,,CLR,0.00,VWS V14.01,2013-08-07 18:39:00,
2013-08-07 13:42:00,84.2,69.8,29.80,WNW,282,0.0,0.0,62,0.00,,CLR,0.00,VWS V14.01,2013-08-07 18:42:00,
2013-08-07 13:43:00,84.4,69.5,29.80,WNW,282,0.0,0.0,61,0.00,,CLR,0.00,VWS V14.01,2013-08-07 18:43:00,
2013-08-07 13:44:00,84.4,70.0,29.80,WNW,300,0.0,0.0,62,0.00,,CLR,0.00,VWS V14.01,2013-08-07 18:44:00,
2013-08-07 13:45:00,84.2,69.8,29.80,West,281,0.0,0.0,62,0.00,,CLR,0.00,VWS V14.01,2013-08-07 18:45:00,
2013-08-07 13:47:00,84.2,69.3,29.80,West,279,0.0,0.0,61,0.00,,SCT100,0.00,VWS V14.01,2013-08-07 18:47:00,
2013-08-07 13:49:00,84.2,69.8,29.80,West,279,0.0,0.0,62,0.00,,SCT100,0.00,VWS V14.01,2013-08-07 18:49:00,
2013-08-07 13:50:00,84.0,69.6,29.80,West,279,0.0,0.0,62,0.00,,SCT100,0.00,VWS V14.01,2013-08-07 18:50:00,
2013-08-07 13:52:00,84.0,69.6,29.80,West,266,0.0,0.0,62,0.00,,SCT100,0.00,VWS V14.01,2013-08-07 18:52:00,
2013-08-07 13:54:00,84.0,69.6,29.80,South,191,1.0,1.0,62,0.00,,SCT100,0.00,VWS V14.01,2013-08-07 18:54:00,
2013-08-07 13:55:00,83.9,69.5,29.80,NW,306,0.0,5.0,62,0.00,,SCT100,0.00,VWS V14.01,2013-08-07 18:55:00,
2013-08-07 13:57:00,84.0,69.6,29.80,NW,305,0.0,5.0,62,0.00,,SCT100,0.00,VWS V14.01,2013-08-07 18:57:00,
2013-08-07 13:59:00,84.2,69.8,29.80,NW,305,0.0,5.0,62,0.00,,SCT100,0.00,VWS V14.01,2013-08-07 18:59:00,
2013-08-07 14:00:00,84.2,69.8,29.80,WNW,286,0.0,5.0,62,0.00,,SCT100,0.00,VWS V14.01,2013-08-07 19:00:00,
2013-08-07 14:02:00,84.2,70.2,29.80,WNW,288,0.0,0.0,63,0.00,,BKN120,0.00,VWS V14.01,2013-08-07 19:02:00,
2013-08-07 14:04:00,84.4,69.5,29.80,WNW,286,0.0,1.0,61,0.00,,BKN120,0.00,VWS V14.01,2013-08-07 19:04:00,
2013-08-07 14:05:00,84.4,70.0,29.80,WNW,286,0.0,1.0,62,0.00,,BKN120,0.00,VWS V14.01,2013-08-07 19:05:00,
2013-08-07 14:07:00,84.6,69.7,29.80,West,275,0.0,1.0,61,0.00,,BKN120,0.00,VWS V14.01,2013-08-07 19:07:00,
2013-08-07 14:09:00,84.6,69.2,29.80,West,281,0.0,1.0,60,0.00,,BKN120,0.00,VWS V14.01,2013-08-07 19:09:00,
2013-08-07 14:10:00,84.6,70.2,29.80,West,280,0.0,1.0,62,0.00,,BKN120,0.00,VWS V14.01,2013-08-07 19:10:00,
2013-08-07 14:13:00,84.8,69.9,29.80,West,270,0.0,1.0,61,0.00,,BKN120,0.00,VWS V14.01,2013-08-07 19:13:00,
2013-08-07 14:14:00,84.8,69.9,29.80,NW,325,0.0,1.0,61,0.00,,BKN120,0.00,VWS V14.01,2013-08-07 19:14:00,
2013-08-07 14:15:00,84.8,70.3,29.80,NW,319,0.0,1.0,62,0.00,,BKN120,0.00,VWS V14.01,2013-08-07 19:15:00,
2013-08-07 14:18:00,85.2,70.7,29.80,NW,319,0.0,1.0,62,0.00,,BKN120,0.00,VWS V14.01,2013-08-07 19:18:00,
2013-08-07 14:19:00,85.4,70.9,29.80,SSW,212,0.0,1.0,62,0.00,,BKN120,0.00,VWS V14.01,2013-08-07 19:19:00,
2013-08-07 14:20:00,85.4,69.9,29.80,SSW,212,0.0,1.0,60,0.00,,BKN120,0.00,VWS V14.01,2013-08-07 19:20:00,
2013-08-07 14:21:00,85.4,70.4,29.80,SSW,212,0.0,1.0,61,0.00,,BKN120,0.00,VWS V14.01,2013-08-07 19:21:00,
2013-08-07 14:23:00,85.4,69.9,29.80,SSW,212,0.0,1.0,60,0.00,,BKN120,0.00,VWS V14.01,2013-08-07 19:23:00,
2013-08-07 14:25:00,85.4,69.9,29.80,SSW,212,0.0,1.0,60,0.00,,BKN120,0.00,VWS V14.01,2013-08-07 19:25:00,
2013-08-07 14:26:00,85.4,69.4,29.80,SSW,212,0.0,1.0,59,0.00,,BKN120,0.00,VWS V14.01,2013-08-07 19:26:00,
2013-08-07 14:28:00,85.2,68.8,29.80,NW,325,0.0,1.0,58,0.00,,BKN120,0.00,VWS V14.01,2013-08-07 19:28:00,
2013-08-07 14:30:00,85.0,69.1,29.79,NW,323,0.0,1.0,59,0.00,,BKN120,0.00,VWS V14.01,2013-08-07 19:30:00,
2013-08-07 14:31:00,85.0,69.6,29.79,SW,219,0.0,0.0,60,0.00,,BKN120,0.00,VWS V14.01,2013-08-07 19:31:00,
2013-08-07 14:32:00,85.0,69.6,29.79,SW,219,0.0,0.0,60,0.00,,BKN120,0.00,VWS V14.01,2013-08-07 19:32:00,
2013-08-07 14:33:00,85.0,69.6,29.79,SW,222,0.0,0.0,60,0.00,,BKN120,0.00,VWS V14.01,2013-08-07 19:33:00,
2013-08-07 14:35:00,85.2,70.2,29.79,SW,222,0.0,0.0,61,0.00,,BKN120,0.00,VWS V14.01,2013-08-07 19:35:00,
2013-08-07 14:36:00,85.2,70.7,29.79,SW,222,0.0,0.0,62,0.00,,BKN120,0.00,VWS V14.01,2013-08-07 19:36:00,
2013-08-07 14:37:00,85.4,70.9,29.79,SW,222,0.0,0.0,62,0.00,,BKN120,0.00,VWS V14.01,2013-08-07 19:37:00,
2013-08-07 14:38:00,85.2,70.2,29.79,SW,216,0.0,1.0,61,0.00,,BKN120,0.00,VWS V14.01,2013-08-07 19:38:00,
2013-08-07 14:40:00,85.2,69.3,29.79,SW,232,0.0,1.0,59,0.00,,BKN120,0.00,VWS V14.01,2013-08-07 19:40:00,
2013-08-07 14:41:00,85.2,69.3,29.79,SW,232,0.0,1.0,59,0.00,,BKN120,0.00,VWS V14.01,2013-08-07 19:41:00,
2013-08-07 14:42:00,85.2,69.8,29.79,SW,232,0.0,1.0,60,0.00,,BKN120,0.00,VWS V14.01,2013-08-07 19:42:00,
2013-08-07 14:43:00,85.2,69.8,29.79,SW,232,0.0,1.0,60,0.00,,BKN120,0.00,VWS V14.01,2013-08-07 19:43:00,
2013-08-07 14:45:00,85.0,69.6,29.79,SW,232,0.0,1.0,60,0.00,,BKN120,0.00,VWS V14.01,2013-08-07 19:45:00,
2013-08-07 14:46:00,85.0,69.1,29.79,SW,232,0.0,1.0,59,0.00,,CLR,0.00,VWS V14.01,2013-08-07 19:46:00,
2013-08-07 14:47:00,84.8,68.9,29.79,SW,232,0.0,1.0,59,0.00,,CLR,0.00,VWS V14.01,2013-08-07 19:47:00,
2013-08-07 14:48:00,84.8,68.9,29.79,SW,232,0.0,1.0,59,0.00,,CLR,0.00,VWS V14.01,2013-08-07 19:48:00,
2013-08-07 14:50:00,84.8,68.9,29.79,SW,232,0.0,1.0,59,0.00,,CLR,0.00,VWS V14.01,2013-08-07 19:50:00,
2013-08-07 14:51:00,84.6,69.2,29.79,SW,232,0.0,1.0,60,0.00,,CLR,0.00,VWS V14.01,2013-08-07 19:51:00,
2013-08-07 14:53:00,84.6,69.2,29.79,SW,232,0.0,1.0,60,0.00,,CLR,0.00,VWS V14.01,2013-08-07 19:53:00,
2013-08-07 14:54:00,84.6,69.2,29.79,SW,232,0.0,1.0,60,0.00,,CLR,0.00,VWS V14.01,2013-08-07 19:54:00,
2013-08-07 14:55:00,84.6,69.2,29.79,SW,225,0.0,1.0,60,0.00,,CLR,0.00,VWS V14.01,2013-08-07 19:55:00,
2013-08-07 14:56:00,84.6,69.7,29.79,SW,225,0.0,1.0,61,0.00,,CLR,0.00,VWS V14.01,2013-08-07 19:56:00,
2013-08-07 14:57:00,84.6,69.2,29.79,SW,225,0.0,1.0,60,0.00,,CLR,0.00,VWS V14.01,2013-08-07 19:57:00,
2013-08-07 14:58:00,84.4,69.0,29.79,SW,225,0.0,1.0,60,0.00,,CLR,0.00,VWS V14.01,2013-08-07 19:58:00,
2013-08-07 14:59:00,84.4,69.0,29.79,SW,225,0.0,1.0,60,0.00,,CLR,0.00,VWS V14.01,2013-08-07 19:59:00,
2013-08-07 15:00:00,84.4,69.0,29.78,SW,225,0.0,1.0,60,0.00,,CLR,0.00,VWS V14.01,2013-08-07 20:00:00,
2013-08-07 15:02:00,84.6,69.7,29.78,SW,220,0.0,0.0,61,0.00,,CLR,0.00,VWS V14.01,2013-08-07 20:02:00,
2013-08-07 15:03:00,84.6,69.7,29.78,SW,219,0.0,0.0,61,0.00,,CLR,0.00,VWS V14.01,2013-08-07 20:03:00,
2013-08-07 15:04:00,84.6,69.7,29.78,SW,216,0.0,1.0,61,0.00,,CLR,0.00,VWS V14.01,2013-08-07 20:04:00,
2013-08-07 15:05:00,84.6,69.7,29.78,SSW,202,3.0,5.0,61,0.00,,CLR,0.00,VWS V14.01,2013-08-07 20:05:00,
2013-08-07 15:07:00,84.4,69.5,29.78,SSW,202,0.0,5.0,61,0.00,,CLR,0.00,VWS V14.01,2013-08-07 20:07:00,
2013-08-07 15:08:00,84.4,70.0,29.78,SSW,202,0.0,5.0,62,0.00,,CLR,0.00,VWS V14.01,2013-08-07 20:08:00,
2013-08-07 15:10:00,84.6,70.2,29.78,South,190,0.0,5.0,62,0.00,,CLR,0.00,VWS V14.01,2013-08-07 20:10:00,
2013-08-07 15:12:00,84.6,70.2,29.78,South,186,0.0,5.0,62,0.00,,CLR,0.00,VWS V14.01,2013-08-07 20:12:00,
2013-08-07 15:13:00,84.8,70.8,29.78,South,183,0.0,5.0,63,0.00,,CLR,0.00,VWS V14.01,2013-08-07 20:13:00,
2013-08-07 15:15:00,85.0,71.0,29.78,East,99,0.0,5.0,63,0.00,,CLR,0.00,VWS V14.01,2013-08-07 20:15:00,
2013-08-07 15:17:00,85.0,68.1,29.78,South,178,0.0,5.0,57,0.00,,CLR,0.00,VWS V14.01,2013-08-07 20:17:00,
2013-08-07 15:19:00,85.0,68.1,29.78,SSW,202,0.0,5.0,57,0.00,,CLR,0.00,VWS V14.01,2013-08-07 20:19:00,
2013-08-07 15:20:00,85.0,68.1,29.78,SSW,194,0.0,5.0,57,0.00,,CLR,0.00,VWS V14.01,2013-08-07 20:20:00,
2013-08-07 15:21:00,85.0,68.1,29.78,SSW,194,0.0,5.0,57,0.00,,CLR,0.00,VWS V14.01,2013-08-07 20:21:00,
2013-08-07 15:22:00,84.8,67.4,29.78,SSW,192,0.0,5.0,56,0.00,,CLR,0.00,VWS V14.01,2013-08-07 20:22:00,
2013-08-07 15:24:00,85.0,68.1,29.78,SSW,192,0.0,5.0,57,0.00,,CLR,0.00,VWS V14.01,2013-08-07 20:24:00,
2013-08-07 15:26:00,85.0,67.6,29.78,SSW,192,0.0,5.0,56,0.00,,CLR,0.00,VWS V14.01,2013-08-07 20:26:00,
2013-08-07 15:27:00,85.2,67.8,29.78,SSW,192,0.0,5.0,56,0.00,,CLR,0.00,VWS V14.01,2013-08-07 20:27:00,
2013-08-07 15:29:00,85.2,67.8,29.78,SSW,192,0.0,5.0,56,0.00,,CLR,0.00,VWS V14.01,2013-08-07 20:29:00,
2013-08-07 15:30:00,85.6,69.1,29.77,South,191,0.0,5.0,58,0.00,,CLR,0.00,VWS V14.01,2013-08-07 20:30:00,
2013-08-07 15:31:00,85.8,69.3,29.77,South,191,0.0,0.0,58,0.00,,CLR,0.00,VWS V14.01,2013-08-07 20:31:00,
2013-08-07 15:32:00,85.8,68.3,29.77,South,191,0.0,0.0,56,0.00,,CLR,0.00,VWS V14.01,2013-08-07 20:32:00,
2013-08-07 15:33:00,86.0,68.5,29.77,South,191,0.0,0.0,56,0.00,,CLR,0.00,VWS V14.01,2013-08-07 20:33:00,
2013-08-07 15:34:00,86.0,69.0,29.77,South,190,0.0,2.0,57,0.00,,CLR,0.00,VWS V14.01,2013-08-07 20:34:00,
2013-08-07 15:36:00,86.0,68.5,29.77,South,190,0.0,2.0,56,0.00,,CLR,0.00,VWS V14.01,2013-08-07 20:36:00,
2013-08-07 15:37:00,86.0,68.5,29.77,South,190,0.0,2.0,56,0.00,,CLR,0.00,VWS V14.01,2013-08-07 20:37:00,
2013-08-07 15:38:00,86.2,69.2,29.77,South,190,0.0,2.0,57,0.00,,CLR,0.00,VWS V14.01,2013-08-07 20:38:00,
2013-08-07 15:39:00,86.2,69.2,29.77,South,191,0.0,2.0,57,0.00,,CLR,0.00,VWS V14.01,2013-08-07 20:39:00,
2013-08-07 15:41:00,86.0,68.5,29.77,South,191,0.0,2.0,56,0.00,,CLR,0.00,VWS V14.01,2013-08-07 20:41:00,
2013-08-07 15:42:00,86.0,69.5,29.77,South,191,0.0,2.0,58,0.00,,CLR,0.00,VWS V14.01,2013-08-07 20:42:00,
2013-08-07 15:43:00,86.0,69.5,29.77,South,191,0.0,2.0,58,0.00,,CLR,0.00,VWS V14.01,2013-08-07 20:43:00,
2013-08-07 15:44:00,86.0,69.5,29.77,South,191,0.0,2.0,58,0.00,,CLR,0.00,VWS V14.01,2013-08-07 20:44:00,
2013-08-07 15:46:00,86.2,69.7,29.76,South,190,0.0,2.0,58,0.00,,CLR,0.00,VWS V14.01,2013-08-07 20:46:00,
2013-08-07 15:47:00,86.4,69.9,29.76,South,186,0.0,2.0,58,0.00,,CLR,0.00,VWS V14.01,2013-08-07 20:47:00,
2013-08-07 15:48:00,86.6,70.1,29.76,South,186,0.0,2.0,58,0.00,,CLR,0.00,VWS V14.01,2013-08-07 20:48:00,
2013-08-07 15:49:00,86.6,69.6,29.76,South,189,0.0,4.0,57,0.00,,CLR,0.00,VWS V14.01,2013-08-07 20:49:00,
2013-08-07 15:51:00,86.2,69.2,29.76,SSW,194,2.0,4.0,57,0.00,,CLR,0.00,VWS V14.01,2013-08-07 20:51:00,
2013-08-07 15:52:00,86.0,69.5,29.76,SSE,168,0.0,5.0,58,0.00,,CLR,0.00,VWS V14.01,2013-08-07 20:52:00,
2013-08-07 15:53:00,85.8,68.3,29.76,South,180,0.0,5.0,56,0.00,,CLR,0.00,VWS V14.01,2013-08-07 20:53:00,
2013-08-07 15:54:00,85.6,68.6,29.76,SE,128,0.0,5.0,57,0.00,,CLR,0.00,VWS V14.01,2013-08-07 20:54:00,
2013-08-07 15:56:00,85.2,69.3,29.76,South,190,0.0,6.0,59,0.00,,CLR,0.00,VWS V14.01,2013-08-07 20:56:00,
2013-08-07 15:57:00,85.0,69.6,29.76,SSE,151,0.0,6.0,60,0.00,,CLR,0.00,VWS V14.01,2013-08-07 20:57:00,
2013-08-07 15:59:00,84.8,69.4,29.76,SE,140,0.0,6.0,60,0.00,,CLR,0.00,VWS V14.01,2013-08-07 20:59:00,
2013-08-07 16:00:00,84.6,69.2,29.76,SE,140,0.0,6.0,60,0.00,,,0.00,VWS V14.01,2013-08-07 21:00:00,
2013-08-07 16:01:00,84.6,69.2,29.76,SE,140,0.0,0.0,60,0.00,,CLR,0.00,VWS V14.01,2013-08-07 21:01:00,
2013-08-07 16:02:00,84.6,70.2,29.76,SE,140,0.0,0.0,62,0.00,,CLR,0.00,VWS V14.01,2013-08-07 21:02:00,
2013-08-07 16:04:00,84.6,69.7,29.76,East,91,0.0,0.0,61,0.00,,CLR,0.00,VWS V14.01,2013-08-07 21:04:00,
2013-08-07 16:06:00,84.8,69.9,29.76,East,91,0.0,0.0,61,0.00,,CLR,0.00,VWS V14.01,2013-08-07 21:06:00,
2013-08-07 16:07:00,84.8,70.8,29.76,East,91,0.0,0.0,63,0.00,,CLR,0.00,VWS V14.01,2013-08-07 21:07:00,
2013-08-07 16:09:00,85.0,70.5,29.76,East,91,0.0,0.0,62,0.00,,CLR,0.00,VWS V14.01,2013-08-07 21:09:00,
2013-08-07 16:10:00,85.0,70.5,29.76,East,91,0.0,0.0,62,0.00,,CLR,0.00,VWS V14.01,2013-08-07 21:10:00,
2013-08-07 16:11:00,84.8,70.3,29.76,ESE,122,0.0,0.0,62,0.00,,CLR,0.00,VWS V14.01,2013-08-07 21:11:00,
2013-08-07 16:12:00,84.8,70.3,29.76,ESE,122,0.0,0.0,62,0.00,,CLR,0.00,VWS V14.01,2013-08-07 21:12:00,
2013-08-07 16:14:00,84.6,70.2,29.76,South,173,0.0,3.0,62,0.00,,CLR,0.00,VWS V14.01,2013-08-07 21:14:00,
2013-08-07 16:15:00,84.6,69.7,29.77,South,173,0.0,3.0,61,0.00,,CLR,0.00,VWS V14.01,2013-08-07 21:15:00,
2013-08-07 16:17:00,84.4,70.0,29.77,South,173,0.0,3.0,62,0.00,,CLR,0.00,VWS V14.01,2013-08-07 21:17:00,
2013-08-07 16:18:00,84.4,70.4,29.77,South,173,0.0,3.0,63,0.00,,CLR,0.00,VWS V14.01,2013-08-07 21:18:00,
2013-08-07 16:19:00,84.4,70.4,29.77,South,173,0.0,3.0,63,0.00,,CLR,0.00,VWS V14.01,2013-08-07 21:19:00,
2013-08-07 16:21:00,84.2,70.7,29.77,South,173,0.0,3.0,64,0.00,,CLR,0.00,VWS V14.01,2013-08-07 21:21:00,
2013-08-07 16:22:00,84.2,71.2,29.77,South,173,0.0,3.0,65,0.00,,CLR,0.00,VWS V14.01,2013-08-07 21:22:00,
2013-08-07 16:23:00,84.2,71.2,29.77,South,173,0.0,3.0,65,0.00,,CLR,0.00,VWS V14.01,2013-08-07 21:23:00,
2013-08-07 16:24:00,84.2,70.7,29.77,South,173,0.0,3.0,64,0.00,,CLR,0.00,VWS V14.01,2013-08-07 21:24:00,
2013-08-07 16:26:00,84.2,70.7,29.77,South,173,0.0,3.0,64,0.00,,CLR,0.00,VWS V14.01,2013-08-07 21:26:00,
2013-08-07 16:27:00,84.2,70.7,29.77,South,173,0.0,3.0,64,0.00,,CLR,0.00,VWS V14.01,2013-08-07 21:27:00,
2013-08-07 16:28:00,84.2,70.2,29.77,South,170,0.0,3.0,63,0.00,,CLR,0.00,VWS V14.01,2013-08-07 21:28:00,
2013-08-07 16:29:00,84.4,71.4,29.77,South,170,0.0,3.0,65,0.00,,CLR,0.00,VWS V14.01,2013-08-07 21:29:00,
2013-08-07 16:30:00,84.4,71.4,29.77,South,170,0.0,3.0,65,0.00,,,0.00,VWS V14.01,2013-08-07 21:30:00,
2013-08-07 16:31:00,84.6,71.6,29.77,South,170,0.0,0.0,65,0.00,,CLR,0.00,VWS V14.01,2013-08-07 21:31:00,
2013-08-07 16:32:00,84.6,71.1,29.77,South,170,0.0,0.0,64,0.00,,CLR,0.00,VWS V14.01,2013-08-07 21:32:00,
2013-08-07 16:33:00,84.8,70.3,29.77,South,170,0.0,0.0,62,0.00,,CLR,0.00,VWS V14.01,2013-08-07 21:33:00,
2013-08-07 16:35:00,85.2,70.2,29.77,South,170,0.0,0.0,61,0.00,,CLR,0.00,VWS V14.01,2013-08-07 21:35:00,
2013-08-07 16:36:00,85.4,70.4,29.77,South,170,0.0,0.0,61,0.00,,CLR,0.00,VWS V14.01,2013-08-07 21:36:00,
2013-08-07 16:37:00,85.4,70.9,29.77,South,170,0.0,0.0,62,0.00,,CLR,0.00,VWS V14.01,2013-08-07 21:37:00,
2013-08-07 16:38:00,85.6,71.1,29.77,South,170,0.0,0.0,62,0.00,,CLR,0.00,VWS V14.01,2013-08-07 21:38:00,
2013-08-07 16:40:00,85.8,71.3,29.77,South,170,0.0,0.0,62,0.00,,CLR,0.00,VWS V14.01,2013-08-07 21:40:00,
2013-08-07 16:41:00,86.0,71.5,29.77,South,170,0.0,0.0,62,0.00,,CLR,0.00,VWS V14.01,2013-08-07 21:41:00,
2013-08-07 16:42:00,86.0,71.0,29.77,SSW,204,0.0,4.0,61,0.00,,CLR,0.00,VWS V14.01,2013-08-07 21:42:00,
2013-08-07 16:43:00,86.0,71.0,29.77,SSW,204,0.0,4.0,61,0.00,,CLR,0.00,VWS V14.01,2013-08-07 21:43:00,
2013-08-07 16:45:00,85.8,70.3,29.77,SSW,210,0.0,4.0,60,0.00,,CLR,0.00,VWS V14.01,2013-08-07 21:45:00,
2013-08-07 16:46:00,85.8,69.8,29.77,SSE,166,0.0,4.0,59,0.00,,CLR,0.00,VWS V14.01,2013-08-07 21:46:00,
2013-08-07 16:47:00,85.8,70.3,29.77,SSE,166,0.0,4.0,60,0.00,,CLR,0.00,VWS V14.01,2013-08-07 21:47:00,
2013-08-07 16:48:00,85.6,70.6,29.77,South,174,0.0,4.0,61,0.00,,CLR,0.00,VWS V14.01,2013-08-07 21:48:00,
2013-08-07 16:50:00,85.6,71.1,29.77,South,174,0.0,4.0,62,0.00,,CLR,0.00,VWS V14.01,2013-08-07 21:50:00,
2013-08-07 16:51:00,85.6,70.1,29.77,South,174,0.0,4.0,60,0.00,,CLR,0.00,VWS V14.01,2013-08-07 21:51:00,
2013-08-07 16:52:00,85.6,70.6,29.77,South,174,0.0,4.0,61,0.00,,CLR,0.00,VWS V14.01,2013-08-07 21:52:00,
2013-08-07 16:53:00,85.6,70.1,29.77,South,174,0.0,4.0,60,0.00,,CLR,0.00,VWS V14.01,2013-08-07 21:53:00,
2013-08-07 16:56:00,85.6,70.1,29.77,SW,221,0.0,4.0,60,0.00,,CLR,0.00,VWS V14.01,2013-08-07 21:56:00,
2013-08-07 16:57:00,85.6,70.1,29.77,SW,219,0.0,4.0,60,0.00,,CLR,0.00,VWS V14.01,2013-08-07 21:57:00,
2013-08-07 16:58:00,85.4,69.9,29.77,SSW,213,0.0,4.0,60,0.00,,CLR,0.00,VWS V14.01,2013-08-07 21:58:00,
2013-08-07 17:00:00,85.4,69.4,29.77,SSW,213,0.0,4.0,59,0.00,,,0.00,VWS V14.01,2013-08-07 22:00:00,
2013-08-07 17:01:00,85.4,69.9,29.77,SSW,213,0.0,0.0,60,0.00,,CLR,0.00,VWS V14.01,2013-08-07 22:01:00,
2013-08-07 17:02:00,85.4,69.9,29.77,SSW,213,0.0,0.0,60,0.00,,CLR,0.00,VWS V14.01,2013-08-07 22:02:00,
2013-08-07 17:03:00,85.4,69.9,29.77,SSW,213,0.0,0.0,60,0.00,,CLR,0.00,VWS V14.01,2013-08-07 22:03:00,
2013-08-07 17:04:00,85.4,69.9,29.77,SSW,212,0.0,1.0,60,0.00,,CLR,0.00,VWS V14.01,2013-08-07 22:04:00,
2013-08-07 17:07:00,85.6,70.1,29.77,SSW,213,0.0,1.0,60,0.00,,CLR,0.00,VWS V14.01,2013-08-07 22:07:00,
2013-08-07 17:08:00,85.6,70.1,29.77,SSW,213,0.0,1.0,60,0.00,,CLR,0.00,VWS V14.01,2013-08-07 22:08:00,
2013-08-07 17:09:00,85.6,70.1,29.77,SSW,213,0.0,1.0,60,0.00,,CLR,0.00,VWS V14.01,2013-08-07 22:09:00,
2013-08-07 17:12:00,85.6,69.6,29.77,SSW,213,0.0,1.0,59,0.00,,CLR,0.00,VWS V14.01,2013-08-07 22:12:00,
2013-08-07 17:13:00,85.6,69.1,29.77,SSW,213,0.0,1.0,58,0.00,,CLR,0.00,VWS V14.01,2013-08-07 22:13:00,
2013-08-07 17:14:00,85.6,69.1,29.77,SSW,213,0.0,1.0,58,0.00,,CLR,0.00,VWS V14.01,2013-08-07 22:14:00,
2013-08-07 17:17:00,85.8,68.8,29.77,SSW,213,0.0,1.0,57,0.00,,CLR,0.00,VWS V14.01,2013-08-07 22:17:00,
2013-08-07 17:18:00,85.6,69.1,29.77,South,178,0.0,1.0,58,0.00,,CLR,0.00,VWS V14.01,2013-08-07 22:18:00,
2013-08-07 17:19:00,85.6,69.6,29.77,South,181,0.0,1.0,59,0.00,,CLR,0.00,VWS V14.01,2013-08-07 22:19:00,
2013-08-07 17:22:00,85.6,69.6,29.77,South,181,0.0,1.0,59,0.00,,CLR,0.00,VWS V14.01,2013-08-07 22:22:00,
2013-08-07 17:23:00,85.6,69.1,29.77,South,181,0.0,1.0,58,0.00,,CLR,0.00,VWS V14.01,2013-08-07 22:23:00,
2013-08-07 17:25:00,85.6,69.6,29.77,South,181,0.0,1.0,59,0.00,,CLR,0.00,VWS V14.01,2013-08-07 22:25:00,
2013-08-07 17:27:00,85.6,69.1,29.77,SSW,200,0.0,3.0,58,0.00,,CLR,0.00,VWS V14.01,2013-08-07 22:27:00,
2013-08-07 17:28:00,85.6,68.6,29.77,SSW,200,0.0,3.0,57,0.00,,CLR,0.00,VWS V14.01,2013-08-07 22:28:00,
2013-08-07 17:30:00,85.6,69.1,29.78,SSW,200,0.0,3.0,58,0.00,,CLR,0.00,VWS V14.01,2013-08-07 22:30:00,
2013-08-07 17:32:00,85.6,69.1,29.78,SSW,200,0.0,0.0,58,0.00,,CLR,0.00,VWS V14.01,2013-08-07 22:32:00,
2013-08-07 17:33:00,85.6,69.1,29.78,SSW,200,0.0,0.0,58,0.00,,CLR,0.00,VWS V14.01,2013-08-07 22:33:00,
2013-08-07 17:35:00,85.6,69.1,29.78,South,190,0.0,0.0,58,0.00,,CLR,0.00,VWS V14.01,2013-08-07 22:35:00,
2013-08-07 17:37:00,85.4,69.4,29.78,South,190,0.0,0.0,59,0.00,,CLR,0.00,VWS V14.01,2013-08-07 22:37:00,
2013-08-07 17:38:00,85.4,69.4,29.78,South,190,0.0,0.0,59,0.00,,CLR,0.00,VWS V14.01,2013-08-07 22:38:00,
2013-08-07 17:39:00,85.4,69.4,29.78,South,189,0.0,0.0,59,0.00,,CLR,0.00,VWS V14.01,2013-08-07 22:39:00,
2013-08-07 17:40:00,85.4,69.0,29.78,South,189,0.0,0.0,58,0.00,,CLR,0.00,VWS V14.01,2013-08-07 22:40:00,
2013-08-07 17:42:00,85.2,69.3,29.78,South,189,0.0,1.0,59,0.00,,CLR,0.00,VWS V14.01,2013-08-07 22:42:00,
2013-08-07 17:43:00,85.2,68.3,29.78,South,177,0.0,4.0,57,0.00,,CLR,0.00,VWS V14.01,2013-08-07 22:43:00,
2013-08-07 17:44:00,85.2,68.3,29.78,South,187,0.0,4.0,57,0.00,,CLR,0.00,VWS V14.01,2013-08-07 22:44:00,
2013-08-07 17:45:00,85.0,68.1,29.77,South,187,0.0,4.0,57,0.00,,CLR,0.00,VWS V14.01,2013-08-07 22:45:00,
2013-08-07 17:47:00,85.0,69.1,29.77,South,187,0.0,4.0,59,0.00,,CLR,0.00,VWS V14.01,2013-08-07 22:47:00,
2013-08-07 17:48:00,85.0,69.1,29.77,South,187,0.0,4.0,59,0.00,,CLR,0.00,VWS V14.01,2013-08-07 22:48:00,
2013-08-07 17:49:00,85.0,68.6,29.77,South,187,0.0,4.0,58,0.00,,CLR,0.00,VWS V14.01,2013-08-07 22:49:00,
2013-08-07 17:50:00,85.0,69.1,29.77,South,187,0.0,4.0,59,0.00,,CLR,0.00,VWS V14.01,2013-08-07 22:50:00,
2013-08-07 17:52:00,84.8,68.9,29.77,South,187,0.0,4.0,59,0.00,,CLR,0.00,VWS V14.01,2013-08-07 22:52:00,
2013-08-07 17:53:00,84.8,68.9,29.77,South,187,0.0,4.0,59,0.00,,CLR,0.00,VWS V14.01,2013-08-07 22:53:00,
2013-08-07 17:54:00,84.8,69.4,29.77,South,187,0.0,4.0,60,0.00,,CLR,0.00,VWS V14.01,2013-08-07 22:54:00,
2013-08-07 17:55:00,84.8,69.4,29.77,South,187,0.0,4.0,60,0.00,,CLR,0.00,VWS V14.01,2013-08-07 22:55:00,
2013-08-07 17:57:00,84.8,69.9,29.77,South,187,0.0,4.0,61,0.00,,CLR,0.00,VWS V14.01,2013-08-07 22:57:00,
2013-08-07 17:58:00,84.6,69.2,29.77,South,187,0.0,4.0,60,0.00,,CLR,0.00,VWS V14.01,2013-08-07 22:58:00,
2013-08-07 17:59:00,84.6,69.2,29.77,South,187,0.0,4.0,60,0.00,,CLR,0.00,VWS V14.01,2013-08-07 22:59:00,
2013-08-07 18:00:00,84.6,69.2,29.78,South,187,0.0,4.0,60,0.00,,SCT110,0.00,VWS V14.01,2013-08-07 23:00:00,
2013-08-07 18:03:00,84.8,69.4,29.78,South,187,0.0,0.0,60,0.00,,SCT110,0.00,VWS V14.01,2013-08-07 23:03:00,
2013-08-07 18:04:00,84.8,69.4,29.78,South,187,0.0,0.0,60,0.00,,SCT110,0.00,VWS V14.01,2013-08-07 23:04:00,
2013-08-07 18:05:00,84.8,69.4,29.78,South,187,0.0,0.0,60,0.00,,SCT110,0.00,VWS V14.01,2013-08-07 23:05:00,
2013-08-07 18:08:00,84.8,69.4,29.78,South,186,0.0,0.0,60,0.00,,SCT110,0.00,VWS V14.01,2013-08-07 23:08:00,
2013-08-07 18:09:00,84.8,69.9,29.78,South,187,0.0,0.0,61,0.00,,SCT110,0.00,VWS V14.01,2013-08-07 23:09:00,
2013-08-07 18:10:00,84.8,69.9,29.78,South,187,0.0,0.0,61,0.00,,SCT110,0.00,VWS V14.01,2013-08-07 23:10:00,
2013-08-07 18:11:00,84.8,69.9,29.78,South,187,0.0,0.0,61,0.00,,SCT110,0.00,VWS V14.01,2013-08-07 23:11:00,
2013-08-07 18:13:00,84.6,69.7,29.78,South,187,0.0,0.0,61,0.00,,SCT110,0.00,VWS V14.01,2013-08-07 23:13:00,
2013-08-07 18:14:00,84.6,69.7,29.78,South,187,0.0,0.0,61,0.00,,SCT110,0.00,VWS V14.01,2013-08-07 23:14:00,
2013-08-07 18:16:00,84.6,70.2,29.78,South,187,0.0,0.0,62,0.00,,SCT110,0.00,VWS V14.01,2013-08-07 23:16:00,
2013-08-07 18:18:00,84.6,70.2,29.78,South,187,0.0,0.0,62,0.00,,SCT110,0.00,VWS V14.01,2013-08-07 23:18:00,
2013-08-07 18:19:00,84.6,70.2,29.78,South,187,0.0,0.0,62,0.00,,SCT110,0.00,VWS V14.01,2013-08-07 23:19:00,
2013-08-07 18:21:00,84.6,70.2,29.78,South,187,0.0,0.0,62,0.00,,SCT110,0.00,VWS V14.01,2013-08-07 23:21:00,
2013-08-07 18:23:00,84.6,69.7,29.78,South,187,0.0,0.0,61,0.00,,SCT110,0.00,VWS V14.01,2013-08-07 23:23:00,
2013-08-07 18:24:00,84.6,69.7,29.78,South,187,0.0,0.0,61,0.00,,SCT110,0.00,VWS V14.01,2013-08-07 23:24:00,
2013-08-07 18:26:00,84.4,70.0,29.78,South,187,0.0,0.0,62,0.00,,SCT110,0.00,VWS V14.01,2013-08-07 23:26:00,
2013-08-07 18:28:00,84.4,70.0,29.78,South,187,0.0,0.0,62,0.00,,SCT110,0.00,VWS V14.01,2013-08-07 23:28:00,
2013-08-07 18:29:00,84.2,69.8,29.78,South,187,0.0,0.0,62,0.00,,SCT110,0.00,VWS V14.01,2013-08-07 23:29:00,
2013-08-07 18:30:00,84.2,69.8,29.78,South,187,0.0,0.0,62,0.00,,SCT110,0.00,VWS V14.01,2013-08-07 23:30:00,
2013-08-07 18:31:00,84.2,69.8,29.78,South,187,0.0,0.0,62,0.00,,SCT110,0.00,VWS V14.01,2013-08-07 23:31:00,
2013-08-07 18:34:00,84.0,69.6,29.78,South,187,0.0,0.0,62,0.00,,SCT110,0.00,VWS V14.01,2013-08-07 23:34:00,
2013-08-07 18:35:00,84.0,69.6,29.78,South,187,0.0,0.0,62,0.00,,SCT110,0.00,VWS V14.01,2013-08-07 23:35:00,
2013-08-07 18:36:00,84.0,70.1,29.78,South,186,0.0,0.0,63,0.00,,SCT110,0.00,VWS V14.01,2013-08-07 23:36:00,
2013-08-07 18:39:00,83.9,70.0,29.78,South,186,0.0,0.0,63,0.00,,SCT110,0.00,VWS V14.01,2013-08-07 23:39:00,
2013-08-07 18:40:00,83.9,70.0,29.78,South,186,0.0,0.0,63,0.00,,SCT110,0.00,VWS V14.01,2013-08-07 23:40:00,
2013-08-07 18:41:00,83.9,70.0,29.78,South,185,0.0,0.0,63,0.00,,SCT110,0.00,VWS V14.01,2013-08-07 23:41:00,
2013-08-07 18:44:00,83.7,69.3,29.78,South,186,0.0,0.0,62,0.00,,SCT110,0.00,VWS V14.01,2013-08-07 23:44:00,
2013-08-07 18:46:00,83.7,70.2,29.78,South,185,0.0,0.0,64,0.00,,CLR,0.00,VWS V14.01,2013-08-07 23:46:00,
2013-08-07 18:47:00,83.7,70.2,29.78,South,186,0.0,0.0,64,0.00,,CLR,0.00,VWS V14.01,2013-08-07 23:47:00,
2013-08-07 18:49:00,83.5,70.1,29.78,South,186,0.0,1.0,64,0.00,,CLR,0.00,VWS V14.01,2013-08-07 23:49:00,
2013-08-07 18:51:00,83.5,70.5,29.78,South,185,0.0,1.0,65,0.00,,CLR,0.00,VWS V14.01,2013-08-07 23:51:00,
2013-08-07 18:52:00,83.3,70.3,29.78,South,185,0.0,1.0,65,0.00,,CLR,0.00,VWS V14.01,2013-08-07 23:52:00,
2013-08-07 18:54:00,83.1,70.1,29.78,South,183,0.0,4.0,65,0.00,,CLR,0.00,VWS V14.01,2013-08-07 23:54:00,
2013-08-07 18:56:00,83.1,70.6,29.78,South,183,0.0,4.0,66,0.00,,CLR,0.00,VWS V14.01,2013-08-07 23:56:00,
2013-08-07 18:57:00,82.9,70.4,29.78,South,183,0.0,4.0,66,0.00,,CLR,0.00,VWS V14.01,2013-08-07 23:57:00,
2013-08-07 18:59:00,82.7,70.2,29.78,South,184,0.0,4.0,66,0.00,,CLR,0.00,VWS V14.01,2013-08-07 23:59:00,
2013-08-07 19:00:00,82.7,70.2,29.78,South,184,0.0,4.0,66,0.00,,SCT075,0.00,VWS V14.01,2013-08-08 00:00:00,
2013-08-07 19:01:00,82.7,70.6,29.78,South,184,0.0,0.0,67,0.00,,SCT075,0.00,VWS V14.01,2013-08-08 00:01:00,
2013-08-07 19:02:00,82.5,70.4,29.78,South,184,0.0,0.0,67,0.00,,SCT075,0.00,VWS V14.01,2013-08-08 00:02:00,
2013-08-07 19:05:00,82.3,70.3,29.78,South,184,0.0,0.0,67,0.00,,SCT075,0.00,VWS V14.01,2013-08-08 00:05:00,
2013-08-07 19:06:00,82.3,70.3,29.78,South,184,0.0,0.0,67,0.00,,SCT075,0.00,VWS V14.01,2013-08-08 00:06:00,
2013-08-07 19:07:00,82.3,70.3,29.78,South,184,0.0,0.0,67,0.00,,SCT075,0.00,VWS V14.01,2013-08-08 00:07:00,
2013-08-07 19:10:00,82.1,70.1,29.78,South,184,0.0,0.0,67,0.00,,SCT075,0.00,VWS V14.01,2013-08-08 00:10:00,
2013-08-07 19:11:00,82.1,70.1,29.78,South,184,0.0,0.0,67,0.00,,SCT075,0.00,VWS V14.01,2013-08-08 00:11:00,
2013-08-07 19:12:00,82.1,70.1,29.78,South,184,0.0,0.0,67,0.00,,SCT075,0.00,VWS V14.01,2013-08-08 00:12:00,
2013-08-07 19:15:00,81.9,70.3,29.78,South,184,0.0,0.0,68,0.00,,SCT075,0.00,VWS V14.01,2013-08-08 00:15:00,
2013-08-07 19:16:00,81.9,69.9,29.78,South,184,0.0,0.0,67,0.00,,SCT075,0.00,VWS V14.01,2013-08-08 00:16:00,
2013-08-07 19:17:00,81.9,69.9,29.78,South,184,0.0,0.0,67,0.00,,SCT075,0.00,VWS V14.01,2013-08-08 00:17:00,
2013-08-07 19:18:00,81.9,69.9,29.78,South,184,0.0,0.0,67,0.00,,SCT075,0.00,VWS V14.01,2013-08-08 00:18:00,
2013-08-07 19:20:00,81.9,70.3,29.78,South,184,0.0,0.0,68,0.00,,SCT075,0.00,VWS V14.01,2013-08-08 00:20:00,
2013-08-07 19:21:00,81.7,70.1,29.78,South,184,0.0,0.0,68,0.00,,SCT075,0.00,VWS V14.01,2013-08-08 00:21:00,
2013-08-07 19:23:00,81.7,70.1,29.78,South,184,0.0,0.0,68,0.00,,SCT075,0.00,VWS V14.01,2013-08-08 00:23:00,
2013-08-07 19:25:00,81.5,70.4,29.78,South,184,0.0,0.0,69,0.00,,SCT075,0.00,VWS V14.01,2013-08-08 00:25:00,
2013-08-07 19:26:00,81.5,70.4,29.78,South,184,0.0,0.0,69,0.00,,SCT075,0.00,VWS V14.01,2013-08-08 00:26:00,
2013-08-07 19:27:00,81.5,69.9,29.78,South,184,0.0,0.0,68,0.00,,SCT075,0.00,VWS V14.01,2013-08-08 00:27:00,
2013-08-07 19:28:00,81.3,69.7,29.78,South,184,0.0,0.0,68,0.00,,SCT075,0.00,VWS V14.01,2013-08-08 00:28:00,
2013-08-07 19:30:00,81.3,69.7,29.79,South,184,0.0,0.0,68,0.00,,,0.00,VWS V14.01,2013-08-08 00:30:00,
2013-08-07 19:31:00,81.3,69.7,29.79,South,184,0.0,0.0,68,0.00,,SCT075,0.00,VWS V14.01,2013-08-08 00:31:00,
2013-08-07 19:32:00,81.1,69.6,29.79,South,184,0.0,0.0,68,0.00,,SCT075,0.00,VWS V14.01,2013-08-08 00:32:00,
2013-08-07 19:33:00,81.1,69.6,29.79,South,184,0.0,0.0,68,0.00,,SCT075,0.00,VWS V14.01,2013-08-08 00:33:00,
2013-08-07 19:34:00,81.1,69.6,29.79,South,184,0.0,0.0,68,0.00,,SCT075,0.00,VWS V14.01,2013-08-08 00:34:00,
2013-08-07 19:36:00,81.1,69.6,29.79,South,184,0.0,0.0,68,0.00,,SCT075,0.00,VWS V14.01,2013-08-08 00:36:00,
2013-08-07 19:37:00,81.1,69.6,29.79,South,184,0.0,0.0,68,0.00,,SCT075,0.00,VWS V14.01,2013-08-08 00:37:00,
2013-08-07 19:38:00,81.1,70.0,29.79,South,184,0.0,0.0,69,0.00,,SCT075,0.00,VWS V14.01,2013-08-08 00:38:00,
2013-08-07 19:39:00,81.0,69.9,29.79,South,184,0.0,1.0,69,0.00,,SCT075,0.00,VWS V14.01,2013-08-08 00:39:00,
2013-08-07 19:41:00,81.0,69.9,29.79,South,184,0.0,1.0,69,0.00,,SCT075,0.00,VWS V14.01,2013-08-08 00:41:00,
2013-08-07 19:42:00,81.0,69.9,29.79,South,184,0.0,1.0,69,0.00,,SCT075,0.00,VWS V14.01,2013-08-08 00:42:00,
2013-08-07 19:43:00,81.0,70.3,29.79,South,184,0.0,1.0,70,0.00,,SCT075,0.00,VWS V14.01,2013-08-08 00:43:00,
2013-08-07 19:45:00,80.8,70.1,29.79,South,184,0.0,1.0,70,0.00,,SCT075,0.00,VWS V14.01,2013-08-08 00:45:00,
2013-08-07 19:46:00,80.8,70.1,29.81,South,184,0.0,1.0,70,0.00,,SCT085,0.00,VWS V14.01,2013-08-08 00:46:00,
2013-08-07 19:47:00,80.8,70.1,29.81,South,184,0.0,1.0,70,0.00,,SCT085,0.00,VWS V14.01,2013-08-08 00:47:00,
2013-08-07 19:48:00,80.8,70.5,29.81,South,185,0.0,1.0,71,0.00,,SCT085,0.00,VWS V14.01,2013-08-08 00:48:00,
2013-08-07 19:49:00,80.8,70.5,29.81,South,185,0.0,1.0,71,0.00,,SCT085,0.00,VWS V14.01,2013-08-08 00:49:00,
2013-08-07 19:51:00,80.8,70.5,29.81,South,185,0.0,1.0,71,0.00,,SCT085,0.00,VWS V14.01,2013-08-08 00:51:00,
2013-08-07 19:52:00,80.6,70.3,29.81,South,185,0.0,1.0,71,0.00,,SCT085,0.00,VWS V14.01,2013-08-08 00:52:00,
2013-08-07 19:53:00,80.6,70.8,29.81,South,185,0.0,1.0,72,0.00,,SCT085,0.00,VWS V14.01,2013-08-08 00:53:00,
2013-08-07 19:55:00,80.6,70.8,29.81,South,185,0.0,1.0,72,0.00,,SCT085,0.00,VWS V14.01,2013-08-08 00:55:00,
2013-08-07 19:56:00,80.6,70.8,29.81,South,185,0.0,1.0,72,0.00,,SCT085,0.00,VWS V14.01,2013-08-08 00:56:00,
2013-08-07 19:58:00,80.4,71.0,29.81,South,185,0.0,1.0,73,0.00,,SCT085,0.00,VWS V14.01,2013-08-08 00:58:00,
2013-08-07 20:00:00,80.4,71.0,29.81,South,185,0.0,1.0,73,0.00,,SCT085,0.00,VWS V14.01,2013-08-08 01:00:00,
2013-08-07 20:01:00,80.2,70.8,29.81,South,185,0.0,0.0,73,0.00,,SCT085,0.00,VWS V14.01,2013-08-08 01:01:00,
2013-08-07 20:03:00,80.2,71.2,29.81,South,185,0.0,1.0,74,0.00,,SCT085,0.00,VWS V14.01,2013-08-08 01:03:00,
2013-08-07 20:05:00,80.0,71.0,29.81,South,188,0.0,3.0,74,0.00,,SCT085,0.00,VWS V14.01,2013-08-08 01:05:00,
2013-08-07 20:07:00,79.8,71.2,29.81,SSW,196,0.0,5.0,75,0.00,,SCT085,0.00,VWS V14.01,2013-08-08 01:07:00,
2013-08-07 20:08:00,79.8,71.2,29.81,SSW,192,1.0,5.0,75,0.00,,SCT085,0.00,VWS V14.01,2013-08-08 01:08:00,
2013-08-07 20:10:00,79.8,71.2,29.81,South,187,0.0,5.0,75,0.00,,SCT085,0.00,VWS V14.01,2013-08-08 01:10:00,
2013-08-07 20:12:00,79.7,71.5,29.81,South,178,0.0,5.0,76,0.00,,SCT085,0.00,VWS V14.01,2013-08-08 01:12:00,
2013-08-07 20:13:00,79.7,71.5,29.81,South,178,0.0,5.0,76,0.00,,SCT085,0.00,VWS V14.01,2013-08-08 01:13:00,
2013-08-07 20:14:00,79.7,71.5,29.81,South,179,0.0,5.0,76,0.00,,SCT085,0.00,VWS V14.01,2013-08-08 01:14:00,
2013-08-07 20:15:00,79.5,71.3,29.81,South,180,0.0,5.0,76,0.00,,SCT085,0.00,VWS V14.01,2013-08-08 01:15:00,
2013-08-07 20:17:00,79.5,71.3,29.81,South,171,0.0,5.0,76,0.00,,SCT085,0.00,VWS V14.01,2013-08-08 01:17:00,
2013-08-07 20:18:00,79.5,71.3,29.81,South,171,0.0,5.0,76,0.00,,SCT085,0.00,VWS V14.01,2013-08-08 01:18:00,
2013-08-07 20:19:00,79.5,71.7,29.81,South,173,0.0,5.0,77,0.00,,SCT085,0.00,VWS V14.01,2013-08-08 01:19:00,
2013-08-07 20:20:00,79.3,71.5,29.81,South,173,0.0,5.0,77,0.00,,SCT085,0.00,VWS V14.01,2013-08-08 01:20:00,
2013-08-07 20:22:00,79.3,71.5,29.81,South,173,0.0,5.0,77,0.00,,SCT085,0.00,VWS V14.01,2013-08-08 01:22:00,
2013-08-07 20:23:00,79.3,71.5,29.81,South,173,0.0,5.0,77,0.00,,SCT085,0.00,VWS V14.01,2013-08-08 01:23:00,
2013-08-07 20:24:00,79.3,71.5,29.81,South,173,0.0,5.0,77,0.00,,SCT085,0.00,VWS V14.01,2013-08-08 01:24:00,
2013-08-07 20:25:00,79.3,71.5,29.81,South,173,0.0,5.0,77,0.00,,SCT085,0.00,VWS V14.01,2013-08-08 01:25:00,
2013-08-07 20:27:00,79.1,71.3,29.81,South,173,0.0,5.0,77,0.00,,SCT085,0.00,VWS V14.01,2013-08-08 01:27:00,
2013-08-07 20:28:00,79.1,71.3,29.81,South,173,0.0,5.0,77,0.00,,SCT085,0.00,VWS V14.01,2013-08-08 01:28:00,
2013-08-07 20:29:00,79.1,71.3,29.81,South,173,0.0,5.0,77,0.00,,SCT085,0.00,VWS V14.01,2013-08-08 01:29:00,
2013-08-07 20:30:00,79.1,71.7,29.81,South,173,0.0,5.0,78,0.00,,SCT085,0.00,VWS V14.01,2013-08-08 01:30:00,
2013-08-07 20:33:00,79.1,71.7,29.81,South,173,0.0,0.0,78,0.00,,SCT085,0.00,VWS V14.01,2013-08-08 01:33:00,
2013-08-07 20:34:00,79.1,71.7,29.81,South,173,0.0,0.0,78,0.00,,SCT085,0.00,VWS V14.01,2013-08-08 01:34:00,
2013-08-07 20:35:00,79.1,71.7,29.81,NNE,14,0.0,0.0,78,0.00,,SCT085,0.00,VWS V14.01,2013-08-08 01:35:00,
2013-08-07 20:38:00,78.9,71.5,29.81,NNW,344,0.0,2.0,78,0.00,,SCT085,0.00,VWS V14.01,2013-08-08 01:38:00,
2013-08-07 20:39:00,78.9,71.5,29.81,NNW,344,0.0,2.0,78,0.00,,SCT085,0.00,VWS V14.01,2013-08-08 01:39:00,
2013-08-07 20:40:00,78.7,71.3,29.81,NNW,345,1.0,2.0,78,0.00,,SCT085,0.00,VWS V14.01,2013-08-08 01:40:00,
2013-08-07 20:41:00,78.7,71.3,29.81,NNW,344,0.0,2.0,78,0.00,,SCT085,0.00,VWS V14.01,2013-08-08 01:41:00,
2013-08-07 20:43:00,78.7,71.6,29.81,NNW,344,0.0,2.0,79,0.00,,SCT085,0.00,VWS V14.01,2013-08-08 01:43:00,
2013-08-07 20:44:00,78.5,71.4,29.81,NNW,344,0.0,2.0,79,0.00,,SCT085,0.00,VWS V14.01,2013-08-08 01:44:00,
2013-08-07 20:45:00,78.5,71.4,29.82,NNW,344,0.0,2.0,79,0.00,,SCT085,0.00,VWS V14.01,2013-08-08 01:45:00,
2013-08-07 20:46:00,78.5,71.4,29.82,NNW,344,0.0,2.0,79,0.00,,BKN090,0.00,VWS V14.01,2013-08-08 01:46:00,
2013-08-07 20:48:00,78.4,71.3,29.82,NNW,344,0.0,2.0,79,0.00,,BKN090,0.00,VWS V14.01,2013-08-08 01:48:00,
2013-08-07 20:49:00,78.4,71.3,29.82,NNW,344,0.0,2.0,79,0.00,,BKN090,0.00,VWS V14.01,2013-08-08 01:49:00,
2013-08-07 20:50:00,78.4,71.3,29.82,NNW,344,0.0,2.0,79,0.00,,BKN090,0.00,VWS V14.01,2013-08-08 01:50:00,
2013-08-07 20:51:00,78.4,71.3,29.82,NNW,344,0.0,2.0,79,0.00,,BKN090,0.00,VWS V14.01,2013-08-08 01:51:00,
2013-08-07 20:53:00,78.2,71.5,29.82,NNW,344,0.0,2.0,80,0.00,,BKN090,0.00,VWS V14.01,2013-08-08 01:53:00,
2013-08-07 20:54:00,78.2,71.5,29.82,NNW,344,0.0,2.0,80,0.00,,BKN090,0.00,VWS V14.01,2013-08-08 01:54:00,
2013-08-07 20:55:00,78.0,71.3,29.82,NNW,344,0.0,2.0,80,0.00,,BKN090,0.00,VWS V14.01,2013-08-08 01:55:00,
2013-08-07 20:56:00,78.0,71.3,29.82,NNW,344,0.0,2.0,80,0.00,,BKN090,0.00,VWS V14.01,2013-08-08 01:56:00,
2013-08-07 20:58:00,78.0,71.3,29.82,NNW,344,0.0,2.0,80,0.00,,BKN090,0.00,VWS V14.01,2013-08-08 01:58:00,
2013-08-07 20:59:00,78.0,71.3,29.82,NNW,344,0.0,2.0,80,0.00,,BKN090,0.00,VWS V14.01,2013-08-08 01:59:00,
2013-08-07 21:00:00,78.2,71.2,29.82,NNW,344,0.0,2.0,79,0.00,,BKN090,0.00,VWS V14.01,2013-08-08 02:00:00,
2013-08-07 21:01:00,78.2,71.2,29.82,NNW,344,0.0,0.0,79,0.00,,OVC034,0.00,VWS V14.01,2013-08-08 02:01:00,
2013-08-07 21:03:00,78.2,71.2,29.82,NNW,344,0.0,0.0,79,0.00,,OVC034,0.00,VWS V14.01,2013-08-08 02:03:00,
2013-08-07 21:04:00,78.2,71.2,29.82,NNW,344,0.0,0.0,79,0.00,,OVC034,0.00,VWS V14.01,2013-08-08 02:04:00,
2013-08-07 21:05:00,78.2,71.2,29.82,NNW,344,0.0,0.0,79,0.00,,OVC034,0.00,VWS V14.01,2013-08-08 02:05:00,
2013-08-07 21:06:00,78.2,71.2,29.82,NNW,344,0.0,0.0,79,0.00,,OVC034,0.00,VWS V14.01,2013-08-08 02:06:00,
2013-08-07 21:08:00,78.2,71.2,29.82,NNW,344,0.0,0.0,79,0.00,,OVC034,0.00,VWS V14.01,2013-08-08 02:08:00,
2013-08-07 21:09:00,78.2,71.2,29.82,NNW,344,0.0,0.0,79,0.00,,OVC034,0.00,VWS V14.01,2013-08-08 02:09:00,
2013-08-07 21:10:00,78.2,71.2,29.82,NNW,344,0.0,0.0,79,0.00,,OVC034,0.00,VWS V14.01,2013-08-08 02:10:00,
2013-08-07 21:11:00,78.2,71.2,29.82,NNW,344,0.0,0.0,79,0.00,,OVC034,0.00,VWS V14.01,2013-08-08 02:11:00,
2013-08-07 21:12:00,78.2,71.2,29.82,NNW,344,0.0,0.0,79,0.00,,OVC034,0.00,VWS V14.01,2013-08-08 02:12:00,
2013-08-07 21:13:00,78.2,71.5,29.82,NNW,344,0.0,0.0,80,0.00,,OVC034,0.00,VWS V14.01,2013-08-08 02:13:00,
2013-08-07 21:14:00,78.2,71.5,29.82,NNW,344,0.0,0.0,80,0.00,,OVC034,0.00,VWS V14.01,2013-08-08 02:14:00,
2013-08-07 21:15:00,78.0,71.3,29.83,NNW,344,0.0,0.0,80,0.00,,OVC034,0.00,VWS V14.01,2013-08-08 02:15:00,
2013-08-07 21:17:00,78.0,71.7,29.83,NNW,344,0.0,0.0,81,0.00,,OVC034,0.00,VWS V14.01,2013-08-08 02:17:00,
2013-08-07 21:18:00,77.8,71.5,29.83,NNW,344,0.0,0.0,81,0.00,,OVC034,0.00,VWS V14.01,2013-08-08 02:18:00,
2013-08-07 21:20:00,77.8,71.5,29.83,SW,227,0.0,0.0,81,0.00,,OVC034,0.00,VWS V14.01,2013-08-08 02:20:00,
2013-08-07 21:22:00,77.6,71.3,29.83,SW,223,0.0,0.0,81,0.00,,OVC034,0.00,VWS V14.01,2013-08-08 02:22:00,
2013-08-07 21:23:00,77.5,71.2,29.83,SSW,195,0.0,1.0,81,0.00,,OVC034,0.00,VWS V14.01,2013-08-08 02:23:00,
2013-08-07 21:25:00,77.3,71.0,29.83,SSW,192,0.0,1.0,81,0.01,,OVC034,0.01,VWS V14.01,2013-08-08 02:25:00,
2013-08-07 21:26:00,77.3,71.0,29.83,South,190,0.0,1.0,81,0.01,,OVC034,0.01,VWS V14.01,2013-08-08 02:26:00,
2013-08-07 21:27:00,77.1,71.2,29.83,South,190,0.0,1.0,82,0.01,,OVC034,0.01,VWS V14.01,2013-08-08 02:27:00,
2013-08-07 21:28:00,77.1,71.2,29.83,South,190,0.0,1.0,82,0.01,,OVC034,0.01,VWS V14.01,2013-08-08 02:28:00,
2013-08-07 21:30:00,76.9,71.0,29.83,South,190,0.0,1.0,82,0.01,,OVC034,0.01,VWS V14.01,2013-08-08 02:30:00,
2013-08-07 21:31:00,76.9,71.0,29.83,South,190,0.0,1.0,82,0.01,,OVC034,0.01,VWS V14.01,2013-08-08 02:31:00,
2013-08-07 21:32:00,76.9,71.3,29.83,South,190,0.0,0.0,83,0.01,,OVC034,0.01,VWS V14.01,2013-08-08 02:32:00,
2013-08-07 21:33:00,76.7,71.2,29.83,South,190,0.0,0.0,83,0.01,,OVC034,0.01,VWS V14.01,2013-08-08 02:33:00,
2013-08-07 21:35:00,76.6,71.4,29.83,South,188,0.0,0.0,84,0.01,,OVC034,0.01,VWS V14.01,2013-08-08 02:35:00,
2013-08-07 21:36:00,76.6,71.4,29.83,South,189,0.0,0.0,84,0.01,,OVC034,0.01,VWS V14.01,2013-08-08 02:36:00,
2013-08-07 21:37:00,76.4,71.2,29.83,South,185,0.0,1.0,84,0.01,,OVC034,0.01,VWS V14.01,2013-08-08 02:37:00,
2013-08-07 21:38:00,76.2,71.0,29.83,South,184,0.0,1.0,84,0.01,,OVC034,0.01,VWS V14.01,2013-08-08 02:38:00,
2013-08-07 21:39:00,76.2,71.0,29.83,South,184,0.0,1.0,84,0.01,,OVC034,0.01,VWS V14.01,2013-08-08 02:39:00,
2013-08-07 21:40:00,76.2,71.4,29.83,South,184,0.0,1.0,85,0.01,,OVC034,0.01,VWS V14.01,2013-08-08 02:40:00,
2013-08-07 21:41:00,76.0,71.2,29.83,South,184,0.0,1.0,85,0.01,,OVC034,0.01,VWS V14.01,2013-08-08 02:41:00,
2013-08-07 21:43:00,76.0,71.2,29.83,South,184,0.0,1.0,85,0.01,,OVC034,0.01,VWS V14.01,2013-08-08 02:43:00,
2013-08-07 21:44:00,75.9,71.1,29.83,South,184,0.0,1.0,85,0.01,,OVC034,0.01,VWS V14.01,2013-08-08 02:44:00,
2013-08-07 21:45:00,75.9,71.4,29.82,South,184,0.0,1.0,86,0.01,,OVC040,0.01,VWS V14.01,2013-08-08 02:45:00,
2013-08-07 21:46:00,75.9,71.4,29.82,South,184,0.0,1.0,86,0.01,,OVC040,0.01,VWS V14.01,2013-08-08 02:46:00,
2013-08-07 21:48:00,75.7,71.2,29.82,South,184,0.0,1.0,86,0.01,,OVC040,0.01,VWS V14.01,2013-08-08 02:48:00,
2013-08-07 21:49:00,75.7,71.2,29.82,South,184,0.0,1.0,86,0.01,,OVC040,0.01,VWS V14.01,2013-08-08 02:49:00,
2013-08-07 21:50:00,75.7,71.6,29.82,South,184,0.0,1.0,87,0.01,,OVC040,0.01,VWS V14.01,2013-08-08 02:50:00,
2013-08-07 21:51:00,75.7,71.6,29.82,South,184,0.0,1.0,87,0.01,,OVC040,0.01,VWS V14.01,2013-08-08 02:51:00,
2013-08-07 21:54:00,75.5,71.4,29.82,South,184,0.0,1.0,87,0.01,,OVC040,0.01,VWS V14.01,2013-08-08 02:54:00,
2013-08-07 21:56:00,75.5,71.4,29.82,South,184,0.0,1.0,87,0.01,,OVC040,0.01,VWS V14.01,2013-08-08 02:56:00,
2013-08-07 21:59:00,75.3,71.5,29.82,South,184,0.0,1.0,88,0.01,,OVC040,0.01,VWS V14.01,2013-08-08 02:59:00,
2013-08-07 22:00:00,75.3,71.5,29.82,South,184,0.0,1.0,88,0.01,,,0.01,VWS V14.01,2013-08-08 03:00:00,
2013-08-07 22:01:00,75.3,71.5,29.82,South,184,0.0,1.0,88,0.01,,OVC049,0.01,VWS V14.01,2013-08-08 03:01:00,
2013-08-07 22:04:00,75.2,71.4,29.82,South,184,0.0,0.0,88,0.01,,OVC049,0.01,VWS V14.01,2013-08-08 03:04:00,
2013-08-07 22:06:00,75.0,71.2,29.82,South,184,0.0,0.0,88,0.01,,OVC049,0.01,VWS V14.01,2013-08-08 03:06:00,
2013-08-07 22:09:00,74.8,71.0,29.82,WSW,245,0.0,0.0,88,0.01,,OVC049,0.01,VWS V14.01,2013-08-08 03:09:00,
2013-08-07 22:11:00,74.6,71.2,29.82,WSW,245,0.0,0.0,89,0.01,,OVC049,0.01,VWS V14.01,2013-08-08 03:11:00,
2013-08-07 22:14:00,74.3,70.8,29.82,WSW,245,0.0,0.0,89,0.01,,OVC049,0.01,VWS V14.01,2013-08-08 03:14:00,
2013-08-07 22:15:00,74.3,70.8,29.83,WSW,245,0.0,0.0,89,0.01,,OVC049,0.01,VWS V14.01,2013-08-08 03:15:00,
2013-08-07 22:16:00,74.3,70.8,29.83,WSW,245,0.0,0.0,89,0.01,,OVC049,0.01,VWS V14.01,2013-08-08 03:16:00,
2013-08-07 22:19:00,73.9,70.5,29.83,WSW,245,0.0,0.0,89,0.01,,OVC049,0.01,VWS V14.01,2013-08-08 03:19:00,
2013-08-07 22:20:00,73.9,70.5,29.83,WSW,245,0.0,0.0,89,0.01,,OVC049,0.01,VWS V14.01,2013-08-08 03:20:00,
2013-08-07 22:21:00,73.9,70.5,29.83,WSW,245,0.0,0.0,89,0.01,,OVC049,0.01,VWS V14.01,2013-08-08 03:21:00,
2013-08-07 22:22:00,73.8,70.4,29.83,WSW,245,0.0,0.0,89,0.01,,OVC049,0.01,VWS V14.01,2013-08-08 03:22:00,
2013-08-07 22:24:00,73.6,70.2,29.83,WSW,245,0.0,0.0,89,0.01,,OVC049,0.01,VWS V14.01,2013-08-08 03:24:00,
2013-08-07 22:25:00,73.6,70.2,29.83,WSW,245,0.0,0.0,89,0.01,,OVC049,0.01,VWS V14.01,2013-08-08 03:25:00,
2013-08-07 22:26:00,73.6,70.5,29.83,WSW,245,0.0,0.0,90,0.01,,OVC049,0.01,VWS V14.01,2013-08-08 03:26:00,
2013-08-07 22:27:00,73.6,70.5,29.83,WSW,245,0.0,0.0,90,0.01,,OVC049,0.01,VWS V14.01,2013-08-08 03:27:00,
2013-08-07 22:29:00,73.4,70.3,29.83,WSW,245,0.0,0.0,90,0.01,,OVC049,0.01,VWS V14.01,2013-08-08 03:29:00,
2013-08-07 22:30:00,73.4,70.3,29.83,WSW,245,0.0,0.0,90,0.01,,OVC049,0.01,VWS V14.01,2013-08-08 03:30:00,
2013-08-07 22:31:00,73.2,70.1,29.83,WSW,245,0.0,0.0,90,0.00,,OVC049,0.01,VWS V14.01,2013-08-08 03:31:00,
2013-08-07 22:32:00,73.2,70.1,29.83,WSW,245,0.0,0.0,90,0.00,,OVC049,0.01,VWS V14.01,2013-08-08 03:32:00,
2013-08-07 22:34:00,73.1,70.0,29.83,WSW,245,0.0,0.0,90,0.00,,OVC049,0.01,VWS V14.01,2013-08-08 03:34:00,
2013-08-07 22:36:00,73.1,70.0,29.83,WSW,245,0.0,0.0,90,0.00,,OVC049,0.01,VWS V14.01,2013-08-08 03:36:00,
2013-08-07 22:37:00,73.1,70.0,29.83,WSW,245,0.0,0.0,90,0.00,,OVC049,0.01,VWS V14.01,2013-08-08 03:37:00,
2013-08-07 22:39:00,72.9,69.8,29.83,WSW,245,0.0,0.0,90,0.00,,OVC049,0.01,VWS V14.01,2013-08-08 03:39:00,
2013-08-07 22:41:00,72.9,69.8,29.83,WSW,245,0.0,0.0,90,0.00,,OVC049,0.01,VWS V14.01,2013-08-08 03:41:00,
2013-08-07 22:42:00,72.9,69.8,29.83,WSW,245,0.0,0.0,90,0.00,,OVC049,0.01,VWS V14.01,2013-08-08 03:42:00,
2013-08-07 22:45:00,72.7,69.6,29.83,WSW,245,0.0,0.0,90,0.00,,OVC049,0.01,VWS V14.01,2013-08-08 03:45:00,
2013-08-07 22:46:00,72.7,69.6,29.83,WSW,245,0.0,0.0,90,0.00,,SCT075,0.01,VWS V14.01,2013-08-08 03:46:00,
2013-08-07 22:47:00,72.7,69.6,29.83,WSW,245,0.0,0.0,90,0.00,,SCT075,0.01,VWS V14.01,2013-08-08 03:47:00,
2013-08-07 22:50:00,72.7,69.6,29.83,WSW,245,0.0,0.0,90,0.00,,SCT075,0.01,VWS V14.01,2013-08-08 03:50:00,
2013-08-07 22:51:00,72.7,69.9,29.83,WNW,293,1.0,1.0,91,0.00,,SCT075,0.01,VWS V14.01,2013-08-08 03:51:00,
2013-08-07 22:52:00,72.7,69.9,29.83,WNW,295,0.0,1.0,91,0.00,,SCT075,0.01,VWS V14.01,2013-08-08 03:52:00,
2013-08-07 22:56:00,72.6,69.8,29.83,NW,306,0.0,1.0,91,0.00,,SCT075,0.01,VWS V14.01,2013-08-08 03:56:00,
2013-08-07 22:57:00,72.6,69.8,29.83,NW,306,0.0,1.0,91,0.00,,SCT075,0.01,VWS V14.01,2013-08-08 03:57:00,
2013-08-07 22:58:00,72.4,69.6,29.83,NW,306,0.0,1.0,91,0.00,,SCT075,0.01,VWS V14.01,2013-08-08 03:58:00,
2013-08-07 23:00:00,72.4,69.6,29.83,NW,306,0.0,1.0,91,0.00,,,0.01,VWS V14.01,2013-08-08 04:00:00,
2013-08-07 23:01:00,72.4,69.6,29.83,NW,306,0.0,1.0,91,0.00,,CLR,0.01,VWS V14.01,2013-08-08 04:01:00,
2013-08-07 23:06:00,72.2,69.4,29.83,NW,306,0.0,0.0,91,0.00,,CLR,0.01,VWS V14.01,2013-08-08 04:06:00,
2013-08-07 23:11:00,72.4,69.9,29.83,NW,306,0.0,0.0,92,0.00,,CLR,0.01,VWS V14.01,2013-08-08 04:11:00,
2013-08-07 23:12:00,72.4,69.9,29.83,NW,306,0.0,0.0,92,0.00,,CLR,0.01,VWS V14.01,2013-08-08 04:12:00,
2013-08-07 23:16:00,72.4,69.9,29.84,NW,306,0.0,0.0,92,0.00,,CLR,0.01,VWS V14.01,2013-08-08 04:16:00,
2013-08-07 23:17:00,72.4,69.9,29.84,NW,306,0.0,0.0,92,0.00,,CLR,0.01,VWS V14.01,2013-08-08 04:17:00,
2013-08-07 23:21:00,72.4,69.9,29.84,NW,306,0.0,0.0,92,0.00,,CLR,0.01,VWS V14.01,2013-08-08 04:21:00,
2013-08-07 23:22:00,72.6,70.2,29.84,NW,306,0.0,0.0,92,0.00,,CLR,0.01,VWS V14.01,2013-08-08 04:22:00,
2013-08-07 23:26:00,72.4,69.9,29.84,NW,306,0.0,1.0,92,0.00,,CLR,0.01,VWS V14.01,2013-08-08 04:26:00,
2013-08-07 23:27:00,72.4,69.9,29.84,NW,306,0.0,1.0,92,0.00,,CLR,0.01,VWS V14.01,2013-08-08 04:27:00,
2013-08-07 23:30:00,72.6,70.2,29.84,NW,306,0.0,1.0,92,0.00,,,0.01,VWS V14.01,2013-08-08 04:30:00,
2013-08-07 23:32:00,72.6,70.2,29.84,NW,306,0.0,0.0,92,0.00,,CLR,0.01,VWS V14.01,2013-08-08 04:32:00,
2013-08-07 23:37:00,72.7,70.2,29.84,NW,307,0.0,0.0,92,0.00,,CLR,0.01,VWS V14.01,2013-08-08 04:37:00,
2013-08-07 23:38:00,72.7,70.2,29.84,NW,307,0.0,0.0,92,0.00,,CLR,0.01,VWS V14.01,2013-08-08 04:38:00,
2013-08-07 23:42:00,72.9,70.4,29.84,NNE,13,0.0,1.0,92,0.00,,CLR,0.01,VWS V14.01,2013-08-08 04:42:00,
2013-08-07 23:43:00,72.9,70.4,29.84,NNE,13,0.0,1.0,92,0.00,,CLR,0.01,VWS V14.01,2013-08-08 04:43:00,
2013-08-07 23:47:00,72.9,70.4,29.85,NNE,13,0.0,1.0,92,0.00,,CLR,0.01,VWS V14.01,2013-08-08 04:47:00,
2013-08-07 23:48:00,72.9,70.4,29.85,NNE,13,0.0,1.0,92,0.00,,CLR,0.01,VWS V14.01,2013-08-08 04:48:00,
2013-08-07 23:52:00,72.7,70.2,29.85,NNE,13,0.0,1.0,92,0.00,,CLR,0.01,VWS V14.01,2013-08-08 04:52:00,
2013-08-07 23:53:00,72.7,70.2,29.85,NNE,13,0.0,1.0,92,0.00,,CLR,0.01,VWS V14.01,2013-08-08 04:53:00,
2013-08-07 23:58:00,72.7,70.2,29.85,NNE,13,0.0,1.0,92,0.00,,CLR,0.01,VWS V14.01,2013-08-08 04:58:00,
2013-08-07 23:59:00,72.7,70.2,29.85,NNE,13,0.0,1.0,92,0.00,,CLR,0.01,VWS V14.01,2013-08-08 04:59:00,